Observation data for Bootleg on 01/11/2019      Previous  Date  Next       Current Mesonet Observations  Soil Data  Daily Summary Page  Observations in Plain Language
KBO1 110601Z 22006KT 09/03 A2996 RMK A01 T00890029  RH  066%=      5-min Rain = 0
KBO1 110602Z 22007KT 09/03 A2996 RMK A01 T00890029  RH  066%=      5-min Rain = 0
KBO1 110603Z 22006KT 09/03 A2996 RMK A01 T00880029  RH  066%=      5-min Rain = 0
KBO1 110604Z 22007KT 09/03 A2996 RMK A01 T00880029  RH  066%=      5-min Rain = 0
KBO1 110605Z 21007KT 09/03 A2996 RMK A01 T00870029  RH  067%=      5-min Rain = 0
KBO1 110606Z 22007KT 09/03 A2997 RMK A01 T00870029  RH  067%=      5-min Rain = 0
KBO1 110607Z 22007KT 09/03 A2997 RMK A01 T00870029  RH  067%=      5-min Rain = 0
KBO1 110608Z 22006KT 09/03 A2997 RMK A01 T00870030  RH  067%=      5-min Rain = 0
KBO1 110609Z 22006KT 09/03 A2997 RMK A01 T00870029  RH  067%=      5-min Rain = 0
KBO1 110610Z 22007KT 09/03 A2996 RMK A01 T00870029  RH  067%=      5-min Rain = 0
KBO1 110611Z 22007KT 09/03 A2996 RMK A01 T00870029  RH  067%=      5-min Rain = 0
KBO1 110612Z 22008KT 09/03 A2996 RMK A01 T00870029  RH  067%=      5-min Rain = 0
KBO1 110613Z 22008KT 09/03 A2996 RMK A01 T00860029  RH  067%=      5-min Rain = 0
KBO1 110614Z 22008KT 09/03 A2996 RMK A01 T00860029  RH  068%=      5-min Rain = 0
KBO1 110615Z 22008KT 09/03 A2996 RMK A01 T00860030  RH  068%=      5-min Rain = 0
KBO1 110616Z 22009KT 09/03 A2996 RMK A01 T00860030  RH  068%=      5-min Rain = 0
KBO1 110617Z 22009KT 09/03 A2996 RMK A01 T00860030  RH  068%=      5-min Rain = 0
KBO1 110618Z 22009KT 09/03 A2996 RMK A01 T00860030  RH  068%=      5-min Rain = 0
KBO1 110619Z 21009KT 09/03 A2996 RMK A01 T00860030  RH  068%=      5-min Rain = 0
KBO1 110620Z 21011KT 09/03 A2996 RMK A01 T00860030  RH  068%=      5-min Rain = 0
KBO1 110621Z 21011KT 09/03 A2996 RMK A01 T00870031  RH  068%=      5-min Rain = 0
KBO1 110622Z 21010KT 09/03 A2996 RMK A01 T00870031  RH  068%=      5-min Rain = 0
KBO1 110623Z 21010KT 09/03 A2996 RMK A01 T00870030  RH  068%=      5-min Rain = 0
KBO1 110624Z 21010KT 09/03 A2996 RMK A01 T00870031  RH  068%=      5-min Rain = 0
KBO1 110625Z 21010KT 09/03 A2996 RMK A01 T00870031  RH  068%=      5-min Rain = 0
KBO1 110626Z 21011KT 09/03 A2996 RMK A01 T00870031  RH  068%=      5-min Rain = 0
KBO1 110627Z 21011KT 09/03 A2996 RMK A01 T00880031  RH  068%=      5-min Rain = 0
KBO1 110628Z 21011KT 09/03 A2996 RMK A01 T00880031  RH  067%=      5-min Rain = 0
KBO1 110629Z 22011KT 09/03 A2996 RMK A01 T00880031  RH  067%=      5-min Rain = 0
KBO1 110630Z 21011KT 09/03 A2996 RMK A01 T00890031  RH  067%=      5-min Rain = 0
KBO1 110631Z 21011KT 09/03 A2996 RMK A01 T00890031  RH  067%=      5-min Rain = 0
KBO1 110632Z 22010KT 09/03 A2995 RMK A01 T00890031  RH  067%=      5-min Rain = 0
KBO1 110633Z 22011KT 09/03 A2995 RMK A01 T00890032  RH  067%=      5-min Rain = 0
KBO1 110634Z 22010KT 09/03 A2995 RMK A01 T00880031  RH  068%=      5-min Rain = 0
KBO1 110635Z 21011KT 09/03 A2995 RMK A01 T00880031  RH  067%=      5-min Rain = 0
KBO1 110636Z 21011KT 09/03 A2995 RMK A01 T00880031  RH  067%=      5-min Rain = 0
KBO1 110637Z 22011KT 09/03 A2995 RMK A01 T00880031  RH  067%=      5-min Rain = 0
KBO1 110638Z 22012KT 09/03 A2995 RMK A01 T00880031  RH  068%=      5-min Rain = 0
KBO1 110639Z 22012KT 09/03 A2995 RMK A01 T00870031  RH  068%=      5-min Rain = 0
KBO1 110640Z 22012KT 09/03 A2995 RMK A01 T00870031  RH  068%=      5-min Rain = 0
KBO1 110641Z 22012KT 09/03 A2995 RMK A01 T00870030  RH  068%=      5-min Rain = 0
KBO1 110642Z 22013KT 09/03 A2995 RMK A01 T00870031  RH  068%=      5-min Rain = 0
KBO1 110643Z 22012KT 09/03 A2995 RMK A01 T00870030  RH  068%=      5-min Rain = 0
KBO1 110644Z 22014KT 09/03 A2995 RMK A01 T00870030  RH  068%=      5-min Rain = 0
KBO1 110645Z 22013KT 09/03 A2995 RMK A01 T00860030  RH  068%=      5-min Rain = 0
KBO1 110646Z 22012KT 09/03 A2995 RMK A01 T00860030  RH  068%=      5-min Rain = 0
KBO1 110647Z 22013KT 09/03 A2995 RMK A01 T00860030  RH  068%=      5-min Rain = 0
KBO1 110648Z 22012KT 09/03 A2995 RMK A01 T00860030  RH  068%=      5-min Rain = 0
KBO1 110649Z 22012KT 09/03 A2995 RMK A01 T00850030  RH  068%=      5-min Rain = 0
KBO1 110650Z 22013KT 09/03 A2995 RMK A01 T00850031  RH  068%=      5-min Rain = 0
KBO1 110651Z 22012KT 09/03 A2995 RMK A01 T00850030  RH  068%=      5-min Rain = 0
KBO1 110652Z 22012KT 09/03 A2995 RMK A01 T00850031  RH  069%=      5-min Rain = 0
KBO1 110653Z 22013KT 09/03 A2995 RMK A01 T00850031  RH  069%=      5-min Rain = 0
KBO1 110654Z 22013KT 09/03 A2995 RMK A01 T00860031  RH  069%=      5-min Rain = 0
KBO1 110655Z 22012KT 09/03 A2995 RMK A01 T00860032  RH  069%=      5-min Rain = 0
KBO1 110656Z 22012KT 09/03 A2995 RMK A01 T00860032  RH  069%=      5-min Rain = 0
KBO1 110657Z 22012KT 09/03 A2995 RMK A01 T00860032  RH  069%=      5-min Rain = 0
KBO1 110658Z 22012KT 09/03 A2994 RMK A01 T00860032  RH  069%=      5-min Rain = 0
KBO1 110659Z 22011KT 09/03 A2994 RMK A01 T00860032  RH  069%=      5-min Rain = 0
KBO1 110700Z 22011KT 09/03 A2994 RMK A01 T00860032  RH  069%=      5-min Rain = 0
KBO1 110701Z 21012KT 09/03 A2994 RMK A01 T00850032  RH  069%=      5-min Rain = 0
KBO1 110702Z 22012KT 09/03 A2994 RMK A01 T00850032  RH  069%=      5-min Rain = 0
KBO1 110703Z 22012KT 09/03 A2994 RMK A01 T00860032  RH  069%=      5-min Rain = 0
KBO1 110704Z 22010KT 09/03 A2994 RMK A01 T00860032  RH  069%=      5-min Rain = 0
KBO1 110705Z 22011KT 09/03 A2994 RMK A01 T00850032  RH  069%=      5-min Rain = 0
KBO1 110706Z 22011KT 08/03 A2994 RMK A01 T00840032  RH  070%=      5-min Rain = 0
KBO1 110707Z 21010KT 08/03 A2995 RMK A01 T00840032  RH  070%=      5-min Rain = 0
KBO1 110708Z 21009KT 08/03 A2995 RMK A01 T00830031  RH  070%=      5-min Rain = 0
KBO1 110709Z 21010KT 08/03 A2995 RMK A01 T00820031  RH  070%=      5-min Rain = 0
KBO1 110710Z 21010KT 08/03 A2995 RMK A01 T00810031  RH  070%=      5-min Rain = 0
KBO1 110711Z 22010KT 08/03 A2995 RMK A01 T00810031  RH  071%=      5-min Rain = 0
KBO1 110712Z 22010KT 08/03 A2995 RMK A01 T00800030  RH  071%=      5-min Rain = 0
KBO1 110713Z 21010KT 08/03 A2995 RMK A01 T00800031  RH  071%=      5-min Rain = 0
KBO1 110714Z 21011KT 08/03 A2995 RMK A01 T00790031  RH  071%=      5-min Rain = 0
KBO1 110715Z 21011KT 08/03 A2995 RMK A01 T00790030  RH  071%=      5-min Rain = 0
KBO1 110716Z 21011KT 08/03 A2994 RMK A01 T00800030  RH  071%=      5-min Rain = 0
KBO1 110717Z 21011KT 08/03 A2994 RMK A01 T00810030  RH  071%=      5-min Rain = 0
KBO1 110718Z 21010KT 08/03 A2994 RMK A01 T00810031  RH  071%=      5-min Rain = 0
KBO1 110719Z 21011KT 08/03 A2995 RMK A01 T00800030  RH  071%=      5-min Rain = 0
KBO1 110720Z 21010KT 08/03 A2995 RMK A01 T00800030  RH  070%=      5-min Rain = 0
KBO1 110721Z 21011KT 08/03 A2994 RMK A01 T00800030  RH  070%=      5-min Rain = 0
KBO1 110722Z 21011KT 08/03 A2994 RMK A01 T00800029  RH  071%=      5-min Rain = 0
KBO1 110723Z 22011KT 08/03 A2994 RMK A01 T00790029  RH  071%=      5-min Rain = 0
KBO1 110724Z 22010KT 08/03 A2994 RMK A01 T00790029  RH  071%=      5-min Rain = 0
KBO1 110725Z 21010KT 08/03 A2994 RMK A01 T00790029  RH  071%=      5-min Rain = 0
KBO1 110726Z 21011KT 08/03 A2994 RMK A01 T00790029  RH  071%=      5-min Rain = 0
KBO1 110727Z 21011KT 08/03 A2994 RMK A01 T00790029  RH  071%=      5-min Rain = 0
KBO1 110728Z 22011KT 08/03 A2994 RMK A01 T00790029  RH  071%=      5-min Rain = 0
KBO1 110729Z 22011KT 08/03 A2994 RMK A01 T00790029  RH  071%=      5-min Rain = 0
KBO1 110730Z 21010KT 08/03 A2994 RMK A01 T00790029  RH  071%=      5-min Rain = 0
KBO1 110731Z 21010KT 08/03 A2994 RMK A01 T00780029  RH  071%=      5-min Rain = 0
KBO1 110732Z 21010KT 08/03 A2994 RMK A01 T00780028  RH  071%=      5-min Rain = 0
KBO1 110733Z 21010KT 08/03 A2994 RMK A01 T00780029  RH  071%=      5-min Rain = 0
KBO1 110734Z 21011KT 08/03 A2995 RMK A01 T00770028  RH  071%=      5-min Rain = 0
KBO1 110735Z 21012KT 08/03 A2995 RMK A01 T00760028  RH  072%=      5-min Rain = 0
KBO1 110736Z 21012KT 08/03 A2994 RMK A01 T00760029  RH  072%=      5-min Rain = 0
KBO1 110737Z 21012KT 08/03 A2994 RMK A01 T00760028  RH  072%=      5-min Rain = 0
KBO1 110738Z 21012KT 08/03 A2994 RMK A01 T00760029  RH  072%=      5-min Rain = 0
KBO1 110739Z 21012KT 08/03 A2995 RMK A01 T00760029  RH  072%=      5-min Rain = 0
KBO1 110740Z 21013KT 08/03 A2995 RMK A01 T00760029  RH  072%=      5-min Rain = 0
KBO1 110741Z 21013KT 08/03 A2995 RMK A01 T00760029  RH  072%=      5-min Rain = 0
KBO1 110742Z 22013KT 08/03 A2994 RMK A01 T00760029  RH  072%=      5-min Rain = 0
KBO1 110743Z 21013KT 08/03 A2994 RMK A01 T00760029  RH  072%=      5-min Rain = 0
KBO1 110744Z 21013KT 08/03 A2994 RMK A01 T00760029  RH  072%=      5-min Rain = 0
KBO1 110745Z 22013KT 08/03 A2994 RMK A01 T00760029  RH  072%=      5-min Rain = 0
KBO1 110746Z 22013KT 08/03 A2994 RMK A01 T00760029  RH  072%=      5-min Rain = 0
KBO1 110747Z 22011KT 08/03 A2994 RMK A01 T00750029  RH  072%=      5-min Rain = 0
KBO1 110748Z 22013KT 08/03 A2994 RMK A01 T00750029  RH  072%=      5-min Rain = 0
KBO1 110749Z 21012KT 08/03 A2994 RMK A01 T00750028  RH  073%=      5-min Rain = 0
KBO1 110750Z 22011KT 08/03 A2994 RMK A01 T00750028  RH  073%=      5-min Rain = 0
KBO1 110751Z 22011KT 07/03 A2994 RMK A01 T00740028  RH  073%=      5-min Rain = 0
KBO1 110752Z 22012KT 07/03 A2994 RMK A01 T00740028  RH  073%=      5-min Rain = 0
KBO1 110753Z 22011KT 07/03 A2994 RMK A01 T00740029  RH  073%=      5-min Rain = 0
KBO1 110754Z 22011KT 07/03 A2994 RMK A01 T00740029  RH  073%=      5-min Rain = 0
KBO1 110755Z 22011KT 07/03 A2994 RMK A01 T00740028  RH  073%=      5-min Rain = 0
KBO1 110756Z 23012KT 07/03 A2994 RMK A01 T00730029  RH  073%=      5-min Rain = 0
KBO1 110757Z 22010KT 07/03 A2994 RMK A01 T00730029  RH  073%=      5-min Rain = 0
KBO1 110758Z 23010KT 07/03 A2994 RMK A01 T00730028  RH  074%=      5-min Rain = 0
KBO1 110759Z 23008KT 07/03 A2994 RMK A01 T00720028  RH  074%=      5-min Rain = 0
KBO1 110800Z 22008KT 07/03 A2994 RMK A01 T00710028  RH  074%=      5-min Rain = 0
KBO1 110801Z 22008KT 07/03 A2994 RMK A01 T00710028  RH  074%=      5-min Rain = 0
KBO1 110802Z 22008KT 07/03 A2994 RMK A01 T00710028  RH  074%=      5-min Rain = 0
KBO1 110803Z 22007KT 07/03 A2994 RMK A01 T00700028  RH  074%=      5-min Rain = 0
KBO1 110804Z 22008KT 07/03 A2994 RMK A01 T00700028  RH  075%=      5-min Rain = 0
KBO1 110805Z 22008KT 07/03 A2994 RMK A01 T00700028  RH  075%=      5-min Rain = 0
KBO1 110806Z 22009KT 07/03 A2994 RMK A01 T00700028  RH  075%=      5-min Rain = 0
KBO1 110807Z 22008KT 07/03 A2993 RMK A01 T00700028  RH  075%=      5-min Rain = 0
KBO1 110808Z 22008KT 07/03 A2994 RMK A01 T00700028  RH  075%=      5-min Rain = 0
KBO1 110809Z 22008KT 07/03 A2993 RMK A01 T00700028  RH  075%=      5-min Rain = 0
KBO1 110810Z 22008KT 07/03 A2993 RMK A01 T00700029  RH  075%=      5-min Rain = 0
KBO1 110811Z 22007KT 07/03 A2993 RMK A01 T00700028  RH  075%=      5-min Rain = 0
KBO1 110812Z 22007KT 07/03 A2993 RMK A01 T00700029  RH  075%=      5-min Rain = 0
KBO1 110813Z 23008KT 07/03 A2993 RMK A01 T00700028  RH  075%=      5-min Rain = 0
KBO1 110814Z 23007KT 07/03 A2993 RMK A01 T00700029  RH  075%=      5-min Rain = 0
KBO1 110815Z 23009KT 07/03 A2993 RMK A01 T00700029  RH  075%=      5-min Rain = 0
KBO1 110816Z 23009KT 07/03 A2993 RMK A01 T00700029  RH  075%=      5-min Rain = 0
KBO1 110817Z 24009KT 07/03 A2993 RMK A01 T00700029  RH  075%=      5-min Rain = 0
KBO1 110818Z 24008KT 07/03 A2993 RMK A01 T00700029  RH  075%=      5-min Rain = 0
KBO1 110819Z 24009KT 07/03 A2993 RMK A01 T00700029  RH  075%=      5-min Rain = 0
KBO1 110820Z 24009KT 07/03 A2993 RMK A01 T00700029  RH  075%=      5-min Rain = 0
KBO1 110821Z 23008KT 07/03 A2993 RMK A01 T00700029  RH  075%=      5-min Rain = 0
KBO1 110822Z 23008KT 07/03 A2993 RMK A01 T00700029  RH  075%=      5-min Rain = 0
KBO1 110823Z 23008KT 07/03 A2993 RMK A01 T00700029  RH  075%=      5-min Rain = 0
KBO1 110824Z 23009KT 07/03 A2993 RMK A01 T00710029  RH  075%=      5-min Rain = 0
KBO1 110825Z 23008KT 07/03 A2993 RMK A01 T00710030  RH  075%=      5-min Rain = 0
KBO1 110826Z 23008KT 07/03 A2993 RMK A01 T00710030  RH  075%=      5-min Rain = 0
KBO1 110827Z 23009KT 07/03 A2993 RMK A01 T00720030  RH  075%=      5-min Rain = 0
KBO1 110828Z 23008KT 07/03 A2993 RMK A01 T00710029  RH  075%=      5-min Rain = 0
KBO1 110829Z 22008KT 07/03 A2993 RMK A01 T00710029  RH  075%=      5-min Rain = 0
KBO1 110830Z 23008KT 07/03 A2993 RMK A01 T00710030  RH  075%=      5-min Rain = 0
KBO1 110831Z 22008KT 07/03 A2993 RMK A01 T00710029  RH  075%=      5-min Rain = 0
KBO1 110832Z 22008KT 07/03 A2993 RMK A01 T00700029  RH  075%=      5-min Rain = 0
KBO1 110833Z 22008KT 07/03 A2993 RMK A01 T00700029  RH  075%=      5-min Rain = 0
KBO1 110834Z 22008KT 07/03 A2993 RMK A01 T00700029  RH  075%=      5-min Rain = 0
KBO1 110835Z 22008KT 07/03 A2993 RMK A01 T00690029  RH  075%=      5-min Rain = 0
KBO1 110836Z 22008KT 07/03 A2993 RMK A01 T00690029  RH  075%=      5-min Rain = 0
KBO1 110837Z 22008KT 07/03 A2993 RMK A01 T00690029  RH  075%=      5-min Rain = 0
KBO1 110838Z 21008KT 07/03 A2993 RMK A01 T00690029  RH  076%=      5-min Rain = 0
KBO1 110839Z 21009KT 07/03 A2992 RMK A01 T00690029  RH  076%=      5-min Rain = 0
KBO1 110840Z 21008KT 07/03 A2992 RMK A01 T00680028  RH  076%=      5-min Rain = 0
KBO1 110841Z 21008KT 07/03 A2992 RMK A01 T00680028  RH  076%=      5-min Rain = 0
KBO1 110842Z 21009KT 07/03 A2992 RMK A01 T00670027  RH  076%=      5-min Rain = 0
KBO1 110843Z 22009KT 07/03 A2992 RMK A01 T00660027  RH  076%=      5-min Rain = 0
KBO1 110844Z 22010KT 07/03 A2992 RMK A01 T00650027  RH  077%=      5-min Rain = 0
KBO1 110845Z 22010KT 07/03 A2992 RMK A01 T00660027  RH  076%=      5-min Rain = 0
KBO1 110846Z 23010KT 07/03 A2993 RMK A01 T00660027  RH  076%=      5-min Rain = 0
KBO1 110847Z 23009KT 07/03 A2992 RMK A01 T00660027  RH  076%=      5-min Rain = 0
KBO1 110848Z 23009KT 07/03 A2992 RMK A01 T00650027  RH  077%=      5-min Rain = 0
KBO1 110849Z 23009KT 06/03 A2993 RMK A01 T00640027  RH  077%=      5-min Rain = 0
KBO1 110850Z 22009KT 06/03 A2993 RMK A01 T00640027  RH  077%=      5-min Rain = 0
KBO1 110851Z 22009KT 06/03 A2993 RMK A01 T00630026  RH  077%=      5-min Rain = 0
KBO1 110852Z 22008KT 06/03 A2993 RMK A01 T00620026  RH  078%=      5-min Rain = 0
KBO1 110853Z 23008KT 06/03 A2993 RMK A01 T00610026  RH  078%=      5-min Rain = 0
KBO1 110854Z 23008KT 06/03 A2993 RMK A01 T00600025  RH  078%=      5-min Rain = 0
KBO1 110855Z 23008KT 06/03 A2993 RMK A01 T00590025  RH  079%=      5-min Rain = 0
KBO1 110856Z 23008KT 06/03 A2993 RMK A01 T00580025  RH  079%=      5-min Rain = 0
KBO1 110857Z 23008KT 06/02 A2993 RMK A01 T00570024  RH  079%=      5-min Rain = 0
KBO1 110858Z 23008KT 06/02 A2993 RMK A01 T00570024  RH  080%=      5-min Rain = 0
KBO1 110859Z 23008KT 06/02 A2993 RMK A01 T00560024  RH  080%=      5-min Rain = 0
KBO1 110900Z 22008KT 06/02 A2993 RMK A01 T00550023  RH  080%=      5-min Rain = 0
KBO1 110901Z 22008KT 06/02 A2993 RMK A01 T00550023  RH  080%=      5-min Rain = 0
KBO1 110902Z 22008KT 05/02 A2993 RMK A01 T00540023  RH  080%=      5-min Rain = 0
KBO1 110903Z 22008KT 05/02 A2993 RMK A01 T00530023  RH  081%=      5-min Rain = 0
KBO1 110904Z 22008KT 05/02 A2993 RMK A01 T00520022  RH  081%=      5-min Rain = 0
KBO1 110905Z 22008KT 05/02 A2993 RMK A01 T00520022  RH  081%=      5-min Rain = 0
KBO1 110906Z 22008KT 05/02 A2993 RMK A01 T00510021  RH  081%=      5-min Rain = 0
KBO1 110907Z 22008KT 05/02 A2993 RMK A01 T00500020  RH  081%=      5-min Rain = 0
KBO1 110908Z 22008KT 05/02 A2993 RMK A01 T00490020  RH  082%=      5-min Rain = 0
KBO1 110909Z 22008KT 05/02 A2993 RMK A01 T00480019  RH  082%=      5-min Rain = 0
KBO1 110910Z 22008KT 05/02 A2993 RMK A01 T00470019  RH  082%=      5-min Rain = 0
KBO1 110911Z 22007KT 05/02 A2993 RMK A01 T00460019  RH  083%=      5-min Rain = 0
KBO1 110912Z 22007KT 05/02 A2993 RMK A01 T00460019  RH  083%=      5-min Rain = 0
KBO1 110913Z 22007KT 05/02 A2993 RMK A01 T00450018  RH  083%=      5-min Rain = 0
KBO1 110914Z 22007KT 05/02 A2992 RMK A01 T00450018  RH  083%=      5-min Rain = 0
KBO1 110915Z 22007KT 04/02 A2992 RMK A01 T00440018  RH  083%=      5-min Rain = 0
KBO1 110916Z 22007KT 04/02 A2992 RMK A01 T00440018  RH  083%=      5-min Rain = 0
KBO1 110917Z 22007KT 04/02 A2992 RMK A01 T00430017  RH  083%=      5-min Rain = 0
KBO1 110918Z 22007KT 04/02 A2992 RMK A01 T00420017  RH  084%=      5-min Rain = 0
KBO1 110919Z 22007KT 04/02 A2992 RMK A01 T00410017  RH  084%=      5-min Rain = 0
KBO1 110920Z 22007KT 04/02 A2993 RMK A01 T00410017  RH  084%=      5-min Rain = 0
KBO1 110921Z 22007KT 04/02 A2992 RMK A01 T00410017  RH  084%=      5-min Rain = 0
KBO1 110922Z 22007KT 04/02 A2992 RMK A01 T00410017  RH  084%=      5-min Rain = 0
KBO1 110923Z 22007KT 04/02 A2992 RMK A01 T00410017  RH  084%=      5-min Rain = 0
KBO1 110924Z 22007KT 04/02 A2992 RMK A01 T00410017  RH  084%=      5-min Rain = 0
KBO1 110925Z 22007KT 04/02 A2992 RMK A01 T00410018  RH  085%=      5-min Rain = 0
KBO1 110926Z 22007KT 04/02 A2992 RMK A01 T00410018  RH  085%=      5-min Rain = 0
KBO1 110927Z 22007KT 04/02 A2992 RMK A01 T00420018  RH  085%=      5-min Rain = 0
KBO1 110928Z 22007KT 04/02 A2992 RMK A01 T00420018  RH  085%=      5-min Rain = 0
KBO1 110929Z 22007KT 04/02 A2992 RMK A01 T00430019  RH  085%=      5-min Rain = 0
KBO1 110930Z 21007KT 04/02 A2992 RMK A01 T00440019  RH  084%=      5-min Rain = 0
KBO1 110931Z 21007KT 04/02 A2992 RMK A01 T00440019  RH  084%=      5-min Rain = 0
KBO1 110932Z 21007KT 05/02 A2992 RMK A01 T00450020  RH  084%=      5-min Rain = 0
KBO1 110933Z 21008KT 05/02 A2992 RMK A01 T00450020  RH  084%=      5-min Rain = 0
KBO1 110934Z 21008KT 05/02 A2992 RMK A01 T00450019  RH  084%=      5-min Rain = 0
KBO1 110935Z 21008KT 05/02 A2992 RMK A01 T00450019  RH  084%=      5-min Rain = 0
KBO1 110936Z 21007KT 05/02 A2992 RMK A01 T00450020  RH  084%=      5-min Rain = 0
KBO1 110937Z 21007KT 05/02 A2992 RMK A01 T00450020  RH  084%=      5-min Rain = 0
KBO1 110938Z 22007KT 05/02 A2992 RMK A01 T00450020  RH  083%=      5-min Rain = 0
KBO1 110939Z 22007KT 05/02 A2991 RMK A01 T00450020  RH  084%=      5-min Rain = 0
KBO1 110940Z 22007KT 05/02 A2991 RMK A01 T00460020  RH  083%=      5-min Rain = 0
KBO1 110941Z 22007KT 05/02 A2991 RMK A01 T00450020  RH  083%=      5-min Rain = 0
KBO1 110942Z 22007KT 05/02 A2991 RMK A01 T00450019  RH  084%=      5-min Rain = 0
KBO1 110943Z 22007KT 04/02 A2991 RMK A01 T00440019  RH  084%=      5-min Rain = 0
KBO1 110944Z 22007KT 04/02 A2991 RMK A01 T00440019  RH  084%=      5-min Rain = 0
KBO1 110945Z 22007KT 04/02 A2991 RMK A01 T00440019  RH  084%=      5-min Rain = 0
KBO1 110946Z 22007KT 04/02 A2991 RMK A01 T00440019  RH  084%=      5-min Rain = 0
KBO1 110947Z 22007KT 04/02 A2991 RMK A01 T00440019  RH  084%=      5-min Rain = 0
KBO1 110948Z 22007KT 04/02 A299 RMK A01 T00430019  RH  084%=      5-min Rain = 0
KBO1 110949Z 22007KT 04/02 A299 RMK A01 T00430019  RH  084%=      5-min Rain = 0
KBO1 110950Z 23007KT 04/02 A299 RMK A01 T00430020  RH  084%=      5-min Rain = 0
KBO1 110951Z 23007KT 04/02 A299 RMK A01 T00440020  RH  084%=      5-min Rain = 0
KBO1 110952Z 23007KT 04/02 A299 RMK A01 T00440020  RH  084%=      5-min Rain = 0
KBO1 110953Z 23006KT 04/02 A2989 RMK A01 T00440020  RH  085%=      5-min Rain = 0
KBO1 110954Z 23007KT 05/02 A2989 RMK A01 T00450021  RH  085%=      5-min Rain = 0
KBO1 110955Z 23007KT 05/02 A2989 RMK A01 T00450021  RH  084%=      5-min Rain = 0
KBO1 110956Z 23008KT 05/02 A299 RMK A01 T00460021  RH  084%=      5-min Rain = 0
KBO1 110957Z 23008KT 05/02 A299 RMK A01 T00460022  RH  084%=      5-min Rain = 0
KBO1 110958Z 23008KT 05/02 A299 RMK A01 T00470023  RH  084%=      5-min Rain = 0
KBO1 110959Z 23009KT 05/02 A299 RMK A01 T00470023  RH  084%=      5-min Rain = 0
KBO1 111000Z 23008KT 05/02 A299 RMK A01 T00480024  RH  084%=      5-min Rain = 0
KBO1 111001Z 23008KT 05/02 A299 RMK A01 T00490024  RH  084%=      5-min Rain = 0
KBO1 111002Z 23008KT 05/03 A2989 RMK A01 T00490025  RH  084%=      5-min Rain = 0
KBO1 111003Z 22008KT 05/03 A2989 RMK A01 T00500025  RH  084%=      5-min Rain = 0
KBO1 111004Z 23007KT 05/03 A2989 RMK A01 T00510026  RH  084%=      5-min Rain = 0
KBO1 111005Z 22007KT 05/03 A2989 RMK A01 T00510026  RH  084%=      5-min Rain = 0
KBO1 111006Z 22007KT 05/03 A2989 RMK A01 T00520027  RH  084%=      5-min Rain = 0
KBO1 111007Z 22007KT 05/03 A2989 RMK A01 T00520027  RH  084%=      5-min Rain = 0
KBO1 111008Z 22007KT 05/03 A2989 RMK A01 T00520027  RH  084%=      5-min Rain = 0
KBO1 111009Z 22007KT 05/03 A2989 RMK A01 T00520027  RH  084%=      5-min Rain = 0
KBO1 111010Z 22007KT 05/03 A2989 RMK A01 T00530027  RH  084%=      5-min Rain = 0
KBO1 111011Z 22007KT 05/03 A2989 RMK A01 T00530027  RH  084%=      5-min Rain = 0
KBO1 111012Z 22007KT 05/03 A2989 RMK A01 T00520027  RH  084%=      5-min Rain = 0
KBO1 111013Z 22007KT 05/03 A2989 RMK A01 T00530027  RH  084%=      5-min Rain = 0
KBO1 111014Z 22007KT 05/03 A2989 RMK A01 T00530027  RH  084%=      5-min Rain = 0
KBO1 111015Z 22008KT 05/03 A2989 RMK A01 T00530028  RH  084%=      5-min Rain = 0
KBO1 111016Z 22008KT 05/03 A2989 RMK A01 T00530028  RH  084%=      5-min Rain = 0
KBO1 111017Z 22007KT 06/03 A2989 RMK A01 T00550029  RH  084%=      5-min Rain = 0
KBO1 111018Z 22007KT 06/03 A2989 RMK A01 T00560029  RH  083%=      5-min Rain = 0
KBO1 111019Z 22007KT 06/03 A2989 RMK A01 T00570029  RH  083%=      5-min Rain = 0
KBO1 111020Z 23009KT 06/03 A2989 RMK A01 T00570029  RH  082%=      5-min Rain = 0
KBO1 111021Z 23010KT 06/03 A2989 RMK A01 T00580030  RH  082%=      5-min Rain = 0
KBO1 111022Z 23010KT 06/03 A2989 RMK A01 T00600031  RH  082%=      5-min Rain = 0
KBO1 111023Z 23010KT 06/03 A2989 RMK A01 T00600031  RH  081%=      5-min Rain = 0
KBO1 111024Z 23011KT 06/03 A2989 RMK A01 T00610031  RH  081%=      5-min Rain = 0
KBO1 111025Z 23010KT 06/03 A2988 RMK A01 T00610031  RH  081%=      5-min Rain = 0
KBO1 111026Z 23011KT 06/03 A2988 RMK A01 T00620031  RH  081%=      5-min Rain = 0
KBO1 111027Z 23010KT 06/03 A2988 RMK A01 T00620031  RH  081%=      5-min Rain = 0
KBO1 111028Z 23010KT 06/03 A2988 RMK A01 T00620031  RH  080%=      5-min Rain = 0
KBO1 111029Z 23010KT 06/03 A2989 RMK A01 T00620031  RH  081%=      5-min Rain = 0
KBO1 111030Z 23010KT 06/03 A2989 RMK A01 T00610030  RH  081%=      5-min Rain = 0
KBO1 111031Z 23010KT 06/03 A2989 RMK A01 T00600030  RH  081%=      5-min Rain = 0
KBO1 111032Z 23009KT 06/03 A2989 RMK A01 T00590030  RH  081%=      5-min Rain = 0
KBO1 111033Z 23010KT 06/03 A2989 RMK A01 T00590030  RH  081%=      5-min Rain = 0
KBO1 111034Z 23010KT 06/03 A2988 RMK A01 T00590029  RH  081%=      5-min Rain = 0
KBO1 111035Z 23009KT 06/03 A2988 RMK A01 T00590030  RH  082%=      5-min Rain = 0
KBO1 111036Z 23010KT 06/03 A2988 RMK A01 T00590029  RH  082%=      5-min Rain = 0
KBO1 111037Z 23010KT 06/03 A2988 RMK A01 T00590029  RH  081%=      5-min Rain = 0
KBO1 111038Z 23010KT 06/03 A2988 RMK A01 T00590029  RH  081%=      5-min Rain = 0
KBO1 111039Z 23010KT 06/03 A2988 RMK A01 T00590029  RH  081%=      5-min Rain = 0
KBO1 111040Z 23010KT 06/03 A2988 RMK A01 T00590029  RH  081%=      5-min Rain = 0
KBO1 111041Z 23010KT 06/03 A2988 RMK A01 T00580029  RH  081%=      5-min Rain = 0
KBO1 111042Z 23009KT 06/03 A2988 RMK A01 T00580029  RH  081%=      5-min Rain = 0
KBO1 111043Z 23008KT 06/03 A2988 RMK A01 T00570028  RH  082%=      5-min Rain = 0
KBO1 111044Z 23008KT 06/03 A2988 RMK A01 T00560028  RH  082%=      5-min Rain = 0
KBO1 111045Z 23008KT 06/03 A2988 RMK A01 T00550027  RH  082%=      5-min Rain = 0
KBO1 111046Z 22007KT 06/03 A2988 RMK A01 T00550027  RH  083%=      5-min Rain = 0
KBO1 111047Z 22008KT 05/03 A2988 RMK A01 T00540027  RH  083%=      5-min Rain = 0
KBO1 111048Z 22008KT 05/03 A2988 RMK A01 T00530027  RH  083%=      5-min Rain = 0
KBO1 111049Z 22007KT 05/03 A2988 RMK A01 T00530027  RH  083%=      5-min Rain = 0
KBO1 111050Z 22008KT 05/03 A2988 RMK A01 T00530027  RH  083%=      5-min Rain = 0
KBO1 111051Z 22007KT 05/03 A2988 RMK A01 T00530027  RH  083%=      5-min Rain = 0
KBO1 111052Z 22007KT 05/03 A2988 RMK A01 T00530027  RH  083%=      5-min Rain = 0
KBO1 111053Z 21007KT 05/03 A2987 RMK A01 T00530026  RH  083%=      5-min Rain = 0
KBO1 111054Z 21007KT 05/03 A2987 RMK A01 T00520026  RH  083%=      5-min Rain = 0
KBO1 111055Z 22007KT 05/03 A2987 RMK A01 T00510025  RH  084%=      5-min Rain = 0
KBO1 111056Z 22007KT 05/03 A2987 RMK A01 T00500025  RH  084%=      5-min Rain = 0
KBO1 111057Z 22008KT 05/03 A2987 RMK A01 T00500026  RH  084%=      5-min Rain = 0
KBO1 111058Z 22007KT 05/03 A2987 RMK A01 T00500026  RH  084%=      5-min Rain = 0
KBO1 111059Z 22008KT 05/03 A2987 RMK A01 T00510026  RH  084%=      5-min Rain = 0
KBO1 111100Z 22009KT 05/03 A2987 RMK A01 T00510026  RH  084%=      5-min Rain = 0
KBO1 111101Z 22008KT 05/03 A2987 RMK A01 T00510026  RH  084%=      5-min Rain = 0
KBO1 111102Z 22008KT 05/03 A2987 RMK A01 T00510026  RH  084%=      5-min Rain = 0
KBO1 111103Z 22009KT 05/03 A2987 RMK A01 T00510026  RH  084%=      5-min Rain = 0
KBO1 111104Z 22009KT 05/03 A2987 RMK A01 T00520027  RH  084%=      5-min Rain = 0
KBO1 111105Z 22009KT 05/03 A2987 RMK A01 T00530027  RH  083%=      5-min Rain = 0
KBO1 111106Z 22008KT 05/03 A2987 RMK A01 T00530027  RH  083%=      5-min Rain = 0
KBO1 111107Z 22009KT 05/03 A2987 RMK A01 T00530027  RH  083%=      5-min Rain = 0
KBO1 111108Z 22009KT 05/03 A2987 RMK A01 T00520026  RH  083%=      5-min Rain = 0
KBO1 111109Z 22009KT 05/03 A2987 RMK A01 T00520026  RH  084%=      5-min Rain = 0
KBO1 111110Z 22010KT 05/03 A2987 RMK A01 T00520026  RH  084%=      5-min Rain = 0
KBO1 111111Z 22009KT 05/03 A2987 RMK A01 T00520026  RH  084%=      5-min Rain = 0
KBO1 111112Z 22009KT 05/03 A2987 RMK A01 T00520026  RH  084%=      5-min Rain = 0
KBO1 111113Z 22010KT 05/03 A2987 RMK A01 T00510025  RH  084%=      5-min Rain = 0
KBO1 111114Z 22009KT 05/03 A2986 RMK A01 T00500026  RH  084%=      5-min Rain = 0
KBO1 111115Z 22009KT 05/03 A2986 RMK A01 T00500026  RH  084%=      5-min Rain = 0
KBO1 111116Z 22009KT 05/03 A2986 RMK A01 T00500026  RH  084%=      5-min Rain = 0
KBO1 111117Z 22009KT 05/03 A2986 RMK A01 T00500026  RH  084%=      5-min Rain = 0
KBO1 111118Z 22009KT 05/03 A2986 RMK A01 T00500026  RH  084%=      5-min Rain = 0
KBO1 111119Z 22009KT 05/03 A2986 RMK A01 T00500026  RH  084%=      5-min Rain = 0
KBO1 111120Z 22009KT 05/03 A2986 RMK A01 T00490025  RH  084%=      5-min Rain = 0
KBO1 111121Z 22009KT 05/02 A2986 RMK A01 T00480024  RH  084%=      5-min Rain = 0
KBO1 111122Z 22009KT 05/02 A2986 RMK A01 T00480024  RH  085%=      5-min Rain = 0
KBO1 111123Z 23008KT 05/02 A2986 RMK A01 T00470023  RH  085%=      5-min Rain = 0
KBO1 111124Z 23008KT 05/02 A2986 RMK A01 T00460023  RH  085%=      5-min Rain = 0
KBO1 111125Z 23008KT 05/02 A2986 RMK A01 T00460023  RH  085%=      5-min Rain = 0
KBO1 111126Z 23007KT 05/02 A2986 RMK A01 T00450023  RH  085%=      5-min Rain = 0
KBO1 111127Z 23007KT 05/02 A2986 RMK A01 T00450023  RH  086%=      5-min Rain = 0
KBO1 111128Z 24007KT 04/02 A2986 RMK A01 T00440023  RH  086%=      5-min Rain = 0
KBO1 111129Z 24008KT 04/02 A2986 RMK A01 T00440023  RH  086%=      5-min Rain = 0
KBO1 111130Z 24008KT 04/02 A2986 RMK A01 T00430023  RH  086%=      5-min Rain = 0
KBO1 111131Z 24008KT 04/02 A2986 RMK A01 T00440023  RH  087%=      5-min Rain = 0
KBO1 111132Z 24008KT 04/02 A2986 RMK A01 T00440024  RH  087%=      5-min Rain = 0
KBO1 111133Z 24008KT 05/02 A2986 RMK A01 T00450024  RH  087%=      5-min Rain = 0
KBO1 111134Z 24009KT 05/03 A2986 RMK A01 T00450025  RH  087%=      5-min Rain = 0
KBO1 111135Z 24008KT 05/03 A2986 RMK A01 T00460025  RH  086%=      5-min Rain = 0
KBO1 111136Z 24008KT 05/03 A2986 RMK A01 T00470025  RH  086%=      5-min Rain = 0
KBO1 111137Z 24009KT 05/03 A2986 RMK A01 T00480025  RH  085%=      5-min Rain = 0
KBO1 111138Z 24009KT 05/03 A2986 RMK A01 T00480025  RH  085%=      5-min Rain = 0
KBO1 111139Z 24011KT 05/03 A2986 RMK A01 T00480025  RH  085%=      5-min Rain = 0
KBO1 111140Z 23011KT 05/03 A2986 RMK A01 T00480025  RH  085%=      5-min Rain = 0
KBO1 111141Z 23012KT 05/03 A2986 RMK A01 T00490025  RH  085%=      5-min Rain = 0
KBO1 111142Z 23012KT 05/03 A2986 RMK A01 T00500026  RH  084%=      5-min Rain = 0
KBO1 111143Z 23013KT 05/03 A2985 RMK A01 T00510026  RH  084%=      5-min Rain = 0
KBO1 111144Z 23014KT 05/03 A2985 RMK A01 T00510025  RH  083%=      5-min Rain = 0
KBO1 111145Z 23013KT 05/03 A2985 RMK A01 T00520025  RH  083%=      5-min Rain = 0
KBO1 111146Z 23013KT 05/03 A2985 RMK A01 T00520025  RH  083%=      5-min Rain = 0
KBO1 111147Z 23012KT 05/03 A2985 RMK A01 T00520025  RH  083%=      5-min Rain = 0
KBO1 111148Z 23012KT 05/03 A2985 RMK A01 T00520025  RH  083%=      5-min Rain = 0
KBO1 111149Z 24011KT 05/03 A2985 RMK A01 T00520025  RH  083%=      5-min Rain = 0
KBO1 111150Z 24011KT 05/02 A2985 RMK A01 T00510024  RH  083%=      5-min Rain = 0
KBO1 111151Z 25011KT 05/02 A2985 RMK A01 T00510024  RH  083%=      5-min Rain = 0
KBO1 111152Z 25011KT 05/02 A2985 RMK A01 T00510024  RH  083%=      5-min Rain = 0
KBO1 111153Z 25010KT 05/02 A2985 RMK A01 T00510024  RH  083%=      5-min Rain = 0
KBO1 111154Z 25010KT 05/02 A2985 RMK A01 T00510024  RH  083%=      5-min Rain = 0
KBO1 111155Z 25009KT 05/02 A2985 RMK A01 T00500024  RH  083%=      5-min Rain = 0
KBO1 111156Z 25010KT 05/02 A2985 RMK A01 T00500024  RH  083%=      5-min Rain = 0
KBO1 111157Z 25009KT 05/02 A2985 RMK A01 T00490024  RH  083%=      5-min Rain = 0
KBO1 111158Z 24009KT 05/02 A2985 RMK A01 T00490023  RH  083%=      5-min Rain = 0
KBO1 111159Z 25009KT 05/02 A2985 RMK A01 T00500023  RH  083%=      5-min Rain = 0
KBO1 111200Z 25008KT 05/02 A2985 RMK A01 T00490022  RH  083%=      5-min Rain = 0
KBO1 111201Z 26008KT 05/02 A2985 RMK A01 T00490022  RH  083%=      5-min Rain = 0
KBO1 111202Z 27007KT 05/02 A2986 RMK A01 T00480022  RH  083%=      5-min Rain = 0
KBO1 111203Z 27007KT 05/02 A2986 RMK A01 T00470021  RH  083%=      5-min Rain = 0
KBO1 111204Z 28007KT 05/02 A2986 RMK A01 T00470021  RH  084%=      5-min Rain = 0
KBO1 111205Z 28007KT 05/02 A2986 RMK A01 T00450021  RH  084%=      5-min Rain = 0
KBO1 111206Z 27007KT 04/02 A2986 RMK A01 T00440020  RH  084%=      5-min Rain = 0
KBO1 111207Z 26006KT 04/02 A2986 RMK A01 T00440021  RH  085%=      5-min Rain = 0
KBO1 111208Z 26006KT 04/02 A2985 RMK A01 T00440021  RH  085%=      5-min Rain = 0
KBO1 111209Z 25007KT 04/02 A2985 RMK A01 T00440021  RH  085%=      5-min Rain = 0
KBO1 111210Z 26007KT 04/02 A2986 RMK A01 T00440021  RH  085%=      5-min Rain = 0
KBO1 111211Z 26008KT 04/02 A2986 RMK A01 T00430020  RH  085%=      5-min Rain = 0
KBO1 111212Z 26008KT 04/02 A2986 RMK A01 T00430021  RH  085%=      5-min Rain = 0
KBO1 111213Z 26008KT 04/02 A2986 RMK A01 T00430020  RH  085%=      5-min Rain = 0
KBO1 111214Z 25009KT 04/02 A2986 RMK A01 T00430020  RH  085%=      5-min Rain = 0
KBO1 111215Z 24009KT 04/02 A2986 RMK A01 T00430020  RH  085%=      5-min Rain = 0
KBO1 111216Z 23011KT 04/02 A2986 RMK A01 T00430020  RH  085%=      5-min Rain = 0
KBO1 111217Z 22011KT 04/02 A2986 RMK A01 T00440021  RH  085%=      5-min Rain = 0
KBO1 111218Z 22011KT 04/02 A2985 RMK A01 T00440020  RH  085%=      5-min Rain = 0
KBO1 111219Z 22010KT 04/02 A2985 RMK A01 T00440020  RH  085%=      5-min Rain = 0
KBO1 111220Z 23011KT 04/02 A2986 RMK A01 T00430020  RH  085%=      5-min Rain = 0
KBO1 111221Z 23009KT 04/02 A2986 RMK A01 T00440021  RH  085%=      5-min Rain = 0
KBO1 111222Z 23009KT 04/02 A2986 RMK A01 T00430020  RH  085%=      5-min Rain = 0
KBO1 111223Z 24008KT 04/02 A2986 RMK A01 T00430020  RH  085%=      5-min Rain = 0
KBO1 111224Z 24009KT 04/02 A2986 RMK A01 T00420019  RH  085%=      5-min Rain = 0
KBO1 111225Z 23009KT 04/02 A2986 RMK A01 T00420020  RH  085%=      5-min Rain = 0
KBO1 111226Z 23007KT 04/02 A2986 RMK A01 T00420020  RH  085%=      5-min Rain = 0
KBO1 111227Z 23007KT 04/02 A2986 RMK A01 T00420020  RH  085%=      5-min Rain = 0
KBO1 111228Z 23007KT 04/02 A2986 RMK A01 T00420019  RH  085%=      5-min Rain = 0
KBO1 111229Z 23008KT 04/02 A2986 RMK A01 T00410019  RH  085%=      5-min Rain = 0
KBO1 111230Z 23008KT 04/02 A2986 RMK A01 T00410019  RH  086%=      5-min Rain = 0
KBO1 111231Z 23008KT 04/02 A2986 RMK A01 T00410019  RH  085%=      5-min Rain = 0
KBO1 111232Z 23008KT 04/02 A2986 RMK A01 T00400018  RH  086%=      5-min Rain = 0
KBO1 111233Z 23008KT 04/02 A2986 RMK A01 T00400018  RH  086%=      5-min Rain = 0
KBO1 111234Z 23007KT 04/02 A2986 RMK A01 T00400018  RH  086%=      5-min Rain = 0
KBO1 111235Z 24007KT 04/02 A2986 RMK A01 T00390017  RH  086%=      5-min Rain = 0
KBO1 111236Z 25006KT 04/02 A2986 RMK A01 T00380018  RH  086%=      5-min Rain = 0
KBO1 111237Z 26006KT 04/02 A2986 RMK A01 T00380017  RH  086%=      5-min Rain = 0
KBO1 111238Z 26006KT 04/02 A2986 RMK A01 T00380017  RH  087%=      5-min Rain = 0
KBO1 111239Z 26006KT 04/02 A2986 RMK A01 T00370016  RH  087%=      5-min Rain = 0
KBO1 111240Z 27007KT 04/02 A2986 RMK A01 T00360016  RH  087%=      5-min Rain = 0
KBO1 111241Z 27006KT 04/02 A2986 RMK A01 T00350015  RH  087%=      5-min Rain = 0
KBO1 111242Z 28006KT 03/02 A2986 RMK A01 T00340015  RH  087%=      5-min Rain = 0
KBO1 111243Z 28006KT 03/01 A2986 RMK A01 T00330014  RH  088%=      5-min Rain = 0
KBO1 111244Z 27006KT 03/01 A2986 RMK A01 T00310013  RH  088%=      5-min Rain = 0
KBO1 111245Z 26007KT 03/01 A2986 RMK A01 T00300013  RH  088%=      5-min Rain = 0
KBO1 111246Z 25007KT 03/01 A2986 RMK A01 T00290013  RH  089%=      5-min Rain = 0
KBO1 111247Z 26007KT 03/01 A2986 RMK A01 T00280013  RH  089%=      5-min Rain = 0
KBO1 111248Z 27006KT 03/01 A2987 RMK A01 T00280013  RH  090%=      5-min Rain = 0
KBO1 111249Z 28006KT 03/01 A2987 RMK A01 T00280013  RH  090%=      5-min Rain = 0
KBO1 111250Z 29006KT 03/01 A2987 RMK A01 T00270013  RH  090%=      5-min Rain = 0
KBO1 111251Z 30006KT 03/01 A2987 RMK A01 T00260012  RH  090%=      5-min Rain = 0
KBO1 111252Z 30005KT 03/01 A2986 RMK A01 T00250011  RH  090%=      5-min Rain = 0
KBO1 111253Z 30004KT 03/01 A2986 RMK A01 T00250011  RH  091%=      5-min Rain = 0
KBO1 111254Z 30004KT 02/01 A2986 RMK A01 T00240011  RH  091%=      5-min Rain = 0
KBO1 111255Z 29004KT 02/01 A2986 RMK A01 T00230010  RH  091%=      5-min Rain = 0
KBO1 111256Z 28004KT 02/01 A2987 RMK A01 T00230010  RH  091%=      5-min Rain = 0
KBO1 111257Z 28005KT 02/01 A2987 RMK A01 T00230011  RH  092%=      5-min Rain = 0
KBO1 111258Z 28005KT 02/01 A2987 RMK A01 T00230012  RH  092%=      5-min Rain = 0
KBO1 111259Z 28005KT 02/01 A2987 RMK A01 T00240013  RH  092%=      5-min Rain = 0
KBO1 111300Z 28005KT 02/01 A2987 RMK A01 T00240013  RH  092%=      5-min Rain = 0
KBO1 111301Z 27005KT 02/01 A2987 RMK A01 T00240012  RH  092%=      5-min Rain = 0
KBO1 111302Z 27005KT 02/01 A2987 RMK A01 T00240013  RH  092%=      5-min Rain = 0
KBO1 111303Z 27006KT 02/01 A2987 RMK A01 T00240013  RH  092%=      5-min Rain = 0
KBO1 111304Z 27006KT 03/01 A2987 RMK A01 T00250013  RH  092%=      5-min Rain = 0
KBO1 111305Z 27006KT 03/01 A2987 RMK A01 T00250014  RH  092%=      5-min Rain = 0
KBO1 111306Z 26006KT 03/01 A2987 RMK A01 T00260014  RH  092%=      5-min Rain = 0
KBO1 111307Z 25006KT 03/02 A2987 RMK A01 T00260015  RH  092%=      5-min Rain = 0
KBO1 111308Z 25007KT 03/02 A2987 RMK A01 T00270015  RH  092%=      5-min Rain = 0
KBO1 111309Z 25008KT 03/02 A2987 RMK A01 T00280016  RH  092%=      5-min Rain = 0
KBO1 111310Z 25009KT 03/02 A2988 RMK A01 T00290016  RH  091%=      5-min Rain = 0
KBO1 111311Z 25009KT 03/02 A2988 RMK A01 T00300016  RH  091%=      5-min Rain = 0
KBO1 111312Z 25010KT 03/02 A2988 RMK A01 T00300016  RH  091%=      5-min Rain = 0
KBO1 111313Z 25010KT 03/02 A2987 RMK A01 T00310016  RH  090%=      5-min Rain = 0
KBO1 111314Z 25009KT 03/02 A2988 RMK A01 T00310017  RH  090%=      5-min Rain = 0
KBO1 111315Z 25009KT 03/02 A2988 RMK A01 T00320016  RH  090%=      5-min Rain = 0
KBO1 111316Z 25010KT 03/02 A2988 RMK A01 T00320017  RH  090%=      5-min Rain = 0
KBO1 111317Z 26010KT 03/02 A2988 RMK A01 T00330017  RH  089%=      5-min Rain = 0
KBO1 111318Z 26009KT 03/02 A2988 RMK A01 T00330017  RH  089%=      5-min Rain = 0
KBO1 111319Z 26008KT 03/02 A2988 RMK A01 T00330017  RH  089%=      5-min Rain = 0
KBO1 111320Z 26008KT 03/02 A2987 RMK A01 T00330017  RH  089%=      5-min Rain = 0
KBO1 111321Z 26008KT 03/02 A2987 RMK A01 T00340017  RH  089%=      5-min Rain = 0
KBO1 111322Z 26008KT 03/02 A2987 RMK A01 T00330017  RH  089%=      5-min Rain = 0
KBO1 111323Z 26008KT 03/02 A2987 RMK A01 T00330016  RH  089%=      5-min Rain = 0
KBO1 111324Z 26008KT 03/02 A2987 RMK A01 T00340017  RH  089%=      5-min Rain = 0
KBO1 111325Z 26009KT 03/02 A2987 RMK A01 T00330016  RH  089%=      5-min Rain = 0
KBO1 111326Z 26008KT 03/02 A2987 RMK A01 T00330016  RH  089%=      5-min Rain = 0
KBO1 111327Z 26008KT 03/02 A2987 RMK A01 T00330016  RH  088%=      5-min Rain = 0
KBO1 111328Z 26008KT 03/02 A2987 RMK A01 T00330016  RH  088%=      5-min Rain = 0
KBO1 111329Z 26008KT 03/02 A2987 RMK A01 T00330016  RH  088%=      5-min Rain = 0
KBO1 111330Z 26008KT 03/02 A2987 RMK A01 T00330016  RH  088%=      5-min Rain = 0
KBO1 111331Z 26008KT 03/02 A2987 RMK A01 T00330016  RH  088%=      5-min Rain = 0
KBO1 111332Z 26007KT 03/02 A2987 RMK A01 T00330015  RH  088%=      5-min Rain = 0
KBO1 111333Z 26007KT 03/02 A2987 RMK A01 T00320015  RH  088%=      5-min Rain = 0
KBO1 111334Z 26008KT 03/01 A2987 RMK A01 T00320014  RH  088%=      5-min Rain = 0
KBO1 111335Z 26008KT 03/01 A2987 RMK A01 T00320014  RH  088%=      5-min Rain = 0
KBO1 111336Z 26007KT 03/01 A2987 RMK A01 T00320014  RH  088%=      5-min Rain = 0
KBO1 111337Z 26008KT 03/01 A2987 RMK A01 T00320014  RH  088%=      5-min Rain = 0
KBO1 111338Z 26007KT 03/01 A2987 RMK A01 T00310013  RH  088%=      5-min Rain = 0
KBO1 111339Z 27007KT 03/01 A2987 RMK A01 T00310013  RH  088%=      5-min Rain = 0
KBO1 111340Z 27007KT 03/01 A2987 RMK A01 T00300012  RH  088%=      5-min Rain = 0
KBO1 111341Z 27006KT 03/01 A2987 RMK A01 T00290012  RH  089%=      5-min Rain = 0
KBO1 111342Z 27007KT 03/01 A2986 RMK A01 T00290012  RH  089%=      5-min Rain = 0
KBO1 111343Z 27007KT 03/01 A2986 RMK A01 T00290013  RH  089%=      5-min Rain = 0
KBO1 111344Z 27007KT 03/01 A2986 RMK A01 T00290012  RH  089%=      5-min Rain = 0
KBO1 111345Z 27008KT 03/01 A2987 RMK A01 T00290012  RH  089%=      5-min Rain = 0
KBO1 111346Z 27007KT 03/01 A2987 RMK A01 T00290012  RH  089%=      5-min Rain = 0
KBO1 111347Z 27007KT 03/01 A2986 RMK A01 T00290012  RH  089%=      5-min Rain = 0
KBO1 111348Z 28007KT 03/01 A2986 RMK A01 T00280012  RH  089%=      5-min Rain = 0
KBO1 111349Z 28007KT 03/01 A2986 RMK A01 T00280011  RH  089%=      5-min Rain = 0
KBO1 111350Z 28008KT 03/01 A2986 RMK A01 T00270011  RH  089%=      5-min Rain = 0
KBO1 111351Z 29009KT 03/01 A2987 RMK A01 T00270012  RH  089%=      5-min Rain = 0
KBO1 111352Z 29009KT 03/01 A2987 RMK A01 T00270012  RH  089%=      5-min Rain = 0
KBO1 111353Z 29009KT 03/01 A2987 RMK A01 T00270012  RH  089%=      5-min Rain = 0
KBO1 111354Z 28009KT 03/01 A2987 RMK A01 T00280012  RH  090%=      5-min Rain = 0
KBO1 111355Z 28010KT 03/01 A2987 RMK A01 T00270012  RH  090%=      5-min Rain = 0
KBO1 111356Z 28011KT 03/01 A2987 RMK A01 T00280012  RH  090%=      5-min Rain = 0
KBO1 111357Z 29010KT 03/01 A2987 RMK A01 T00290014  RH  090%=      5-min Rain = 0
KBO1 111358Z 29010KT 03/01 A2987 RMK A01 T00300014  RH  089%=      5-min Rain = 0
KBO1 111359Z 29010KT 03/01 A2987 RMK A01 T00310014  RH  089%=      5-min Rain = 0
KBO1 111400Z 29010KT 03/01 A2987 RMK A01 T00310014  RH  088%=      5-min Rain = 0
KBO1 111401Z 29009KT 03/01 A2987 RMK A01 T00310013  RH  088%=      5-min Rain = 0
KBO1 111402Z 29009KT 03/01 A2987 RMK A01 T00310013  RH  088%=      5-min Rain = 0
KBO1 111403Z 29008KT 03/01 A2987 RMK A01 T00310013  RH  088%=      5-min Rain = 0
KBO1 111404Z 29008KT 03/01 A2987 RMK A01 T00300012  RH  088%=      5-min Rain = 0
KBO1 111405Z 29007KT 03/01 A2987 RMK A01 T00300013  RH  088%=      5-min Rain = 0
KBO1 111406Z 29007KT 03/01 A2987 RMK A01 T00300012  RH  088%=      5-min Rain = 0
KBO1 111407Z 29007KT 03/01 A2987 RMK A01 T00300012  RH  088%=      5-min Rain = 0
KBO1 111408Z 29007KT 03/01 A2987 RMK A01 T00290012  RH  089%=      5-min Rain = 0
KBO1 111409Z 29007KT 03/01 A2987 RMK A01 T00290012  RH  089%=      5-min Rain = 0
KBO1 111410Z 29006KT 03/01 A2987 RMK A01 T00290012  RH  089%=      5-min Rain = 0
KBO1 111411Z 29006KT 03/01 A2987 RMK A01 T00280012  RH  089%=      5-min Rain = 0
KBO1 111412Z 29006KT 03/01 A2987 RMK A01 T00280012  RH  089%=      5-min Rain = 0
KBO1 111413Z 29007KT 03/01 A2987 RMK A01 T00270012  RH  089%=      5-min Rain = 0
KBO1 111414Z 28007KT 03/01 A2987 RMK A01 T00270011  RH  090%=      5-min Rain = 0
KBO1 111415Z 28007KT 03/01 A2987 RMK A01 T00260011  RH  090%=      5-min Rain = 0
KBO1 111416Z 28007KT 03/01 A2987 RMK A01 T00260011  RH  090%=      5-min Rain = 0
KBO1 111417Z 28006KT 03/01 A2987 RMK A01 T00260012  RH  091%=      5-min Rain = 0
KBO1 111418Z 28006KT 03/01 A2987 RMK A01 T00260012  RH  091%=      5-min Rain = 0
KBO1 111419Z 29006KT 03/01 A2987 RMK A01 T00250012  RH  091%=      5-min Rain = 0
KBO1 111420Z 29006KT 03/01 A2987 RMK A01 T00250012  RH  091%=      5-min Rain = 0
KBO1 111421Z 29006KT 03/01 A2987 RMK A01 T00250012  RH  091%=      5-min Rain = 0
KBO1 111422Z 29006KT 03/01 A2987 RMK A01 T00250012  RH  091%=      5-min Rain = 0
KBO1 111423Z 29006KT 02/01 A2987 RMK A01 T00240011  RH  091%=      5-min Rain = 0
KBO1 111424Z 29007KT 02/01 A2987 RMK A01 T00240011  RH  091%=      5-min Rain = 0
KBO1 111425Z 29007KT 02/01 A2987 RMK A01 T00240012  RH  092%=      5-min Rain = 0
KBO1 111426Z 29008KT 02/01 A2987 RMK A01 T00240012  RH  092%=      5-min Rain = 0
KBO1 111427Z 29008KT 02/01 A2987 RMK A01 T00240012  RH  092%=      5-min Rain = 0
KBO1 111428Z 30008KT 02/01 A2987 RMK A01 T00240012  RH  092%=      5-min Rain = 0
KBO1 111429Z 30008KT 02/01 A2987 RMK A01 T00240012  RH  092%=      5-min Rain = 0
KBO1 111430Z 30008KT 02/01 A2987 RMK A01 T00240013  RH  092%=      5-min Rain = 0
KBO1 111431Z 30008KT 02/01 A2987 RMK A01 T00240013  RH  092%=      5-min Rain = 0
KBO1 111432Z 30007KT 02/01 A2987 RMK A01 T00240013  RH  092%=      5-min Rain = 0
KBO1 111433Z 30008KT 02/01 A2987 RMK A01 T00240013  RH  092%=      5-min Rain = 0
KBO1 111434Z 30007KT 03/01 A2988 RMK A01 T00250014  RH  093%=      5-min Rain = 0
KBO1 111435Z 30008KT 03/01 A2988 RMK A01 T00250014  RH  093%=      5-min Rain = 0
KBO1 111436Z 30007KT 03/01 A2988 RMK A01 T00250014  RH  093%=      5-min Rain = 0
KBO1 111437Z 30008KT 03/01 A2988 RMK A01 T00250014  RH  093%=      5-min Rain = 0
KBO1 111438Z 30007KT 03/02 A2988 RMK A01 T00250015  RH  093%=      5-min Rain = 0
KBO1 111439Z 30007KT 03/02 A2988 RMK A01 T00250016  RH  093%=      5-min Rain = 0
KBO1 111440Z 30007KT 03/02 A2988 RMK A01 T00250016  RH  094%=      5-min Rain = 0
KBO1 111441Z 30007KT 03/02 A2988 RMK A01 T00260016  RH  094%=      5-min Rain = 0
KBO1 111442Z 31006KT 03/02 A2988 RMK A01 T00260017  RH  094%=      5-min Rain = 0
KBO1 111443Z 31006KT 03/02 A2988 RMK A01 T00260017  RH  094%=      5-min Rain = 0
KBO1 111444Z 32007KT 03/02 A2988 RMK A01 T00250016  RH  094%=      5-min Rain = 0
KBO1 111445Z 32007KT 03/02 A2988 RMK A01 T00250016  RH  094%=      5-min Rain = 0
KBO1 111446Z 32007KT 03/02 A2988 RMK A01 T00250017  RH  094%=      5-min Rain = 0
KBO1 111447Z 32007KT 02/02 A2988 RMK A01 T00240016  RH  094%=      5-min Rain = 0
KBO1 111448Z 32007KT 02/02 A2988 RMK A01 T00240017  RH  094%=      5-min Rain = 0
KBO1 111449Z 32008KT 02/02 A2989 RMK A01 T00240016  RH  095%=      5-min Rain = 0
KBO1 111450Z 32007KT 02/02 A2989 RMK A01 T00240016  RH  095%=      5-min Rain = 0
KBO1 111451Z 33008KT 02/02 A2989 RMK A01 T00240017  RH  095%=      5-min Rain = 0
KBO1 111452Z 33008KT 02/02 A2989 RMK A01 T00240017  RH  095%=      5-min Rain = 0
KBO1 111453Z 33009KT 02/02 A2989 RMK A01 T00240018  RH  095%=      5-min Rain = 0
KBO1 111454Z 34009KT 02/02 A2989 RMK A01 T00240017  RH  095%=      5-min Rain = 0
KBO1 111455Z 33009KT 03/02 A2989 RMK A01 T00250018  RH  095%=      5-min Rain = 0
KBO1 111456Z 33009KT 03/02 A2989 RMK A01 T00250018  RH  095%=      5-min Rain = 0
KBO1 111457Z 34009KT 03/02 A2989 RMK A01 T00250017  RH  095%=      5-min Rain = 0
KBO1 111458Z 33009KT 03/02 A2989 RMK A01 T00250017  RH  095%=      5-min Rain = 0
KBO1 111459Z 33009KT 03/02 A2989 RMK A01 T00250017  RH  094%=      5-min Rain = 0
KBO1 111500Z 33010KT 03/02 A2989 RMK A01 T00250017  RH  094%=      5-min Rain = 0
KBO1 111501Z 34010KT 03/02 A2989 RMK A01 T00250017  RH  094%=      5-min Rain = 0
KBO1 111502Z 34010KT 03/02 A2989 RMK A01 T00260017  RH  094%=      5-min Rain = 0
KBO1 111503Z 33010KT 03/02 A2989 RMK A01 T00260017  RH  094%=      5-min Rain = 0
KBO1 111504Z 34011KT 03/02 A2989 RMK A01 T00260017  RH  094%=      5-min Rain = 0
KBO1 111505Z 33010KT 03/02 A2989 RMK A01 T00260017  RH  094%=      5-min Rain = 0
KBO1 111506Z 34009KT 03/02 A2989 RMK A01 T00260017  RH  093%=      5-min Rain = 0
KBO1 111507Z 34010KT 03/02 A2989 RMK A01 T00270017  RH  093%=      5-min Rain = 0
KBO1 111508Z 35009KT 03/02 A2989 RMK A01 T00270017  RH  093%=      5-min Rain = 0
KBO1 111509Z 35011KT 03/02 A2989 RMK A01 T00270017  RH  093%=      5-min Rain = 0
KBO1 111510Z 35013KT 03/02 A2989 RMK A01 T00270016  RH  093%=      5-min Rain = 0
KBO1 111511Z 34012KT 03/02 A299 RMK A01 T00270015  RH  092%=      5-min Rain = 0
KBO1 111512Z 34011KT 03/02 A299 RMK A01 T00270015  RH  092%=      5-min Rain = 0
KBO1 111513Z 34013KT 03/02 A299 RMK A01 T00270015  RH  091%=      5-min Rain = 0
KBO1 111514Z 34012KT 03/02 A299 RMK A01 T00280015  RH  091%=      5-min Rain = 0
KBO1 111515Z 34012KT 03/01 A2989 RMK A01 T00280014  RH  091%=      5-min Rain = 0
KBO1 111516Z 35012KT 03/01 A2989 RMK A01 T00280014  RH  091%=      5-min Rain = 0
KBO1 111517Z 34011KT 03/01 A2989 RMK A01 T00280014  RH  091%=      5-min Rain = 0
KBO1 111518Z 34012KT 03/01 A2989 RMK A01 T00280014  RH  091%=      5-min Rain = 0
KBO1 111519Z 34011KT 03/01 A2989 RMK A01 T00270013  RH  090%=      5-min Rain = 0
KBO1 111520Z 34013KT 03/01 A299 RMK A01 T00280013  RH  090%=      5-min Rain = 0
KBO1 111521Z 34012KT 03/01 A299 RMK A01 T00280013  RH  090%=      5-min Rain = 0
KBO1 111522Z 34011KT 03/01 A299 RMK A01 T00280013  RH  090%=      5-min Rain = 0
KBO1 111523Z 34012KT 03/01 A299 RMK A01 T00280013  RH  090%=      5-min Rain = 0
KBO1 111524Z 34009KT 03/01 A299 RMK A01 T00280012  RH  089%=      5-min Rain = 0
KBO1 111525Z 34010KT 03/01 A2989 RMK A01 T00280012  RH  089%=      5-min Rain = 0
KBO1 111526Z 35010KT 03/01 A2989 RMK A01 T00280013  RH  089%=      5-min Rain = 0
KBO1 111527Z 34009KT 03/01 A2989 RMK A01 T00280012  RH  089%=      5-min Rain = 0
KBO1 111528Z 35010KT 03/01 A2989 RMK A01 T00280012  RH  089%=      5-min Rain = 0
KBO1 111529Z 34011KT 03/01 A2989 RMK A01 T00290012  RH  089%=      5-min Rain = 0
KBO1 111530Z 35012KT 03/01 A2989 RMK A01 T00290011  RH  088%=      5-min Rain = 0
KBO1 111531Z 34012KT 03/01 A2989 RMK A01 T00290011  RH  088%=      5-min Rain = 0
KBO1 111532Z 35012KT 03/01 A2989 RMK A01 T00290010  RH  088%=      5-min Rain = 0
KBO1 111533Z 34011KT 03/01 A2989 RMK A01 T00290010  RH  087%=      5-min Rain = 0
KBO1 111534Z 34012KT 03/01 A2989 RMK A01 T00290010  RH  087%=      5-min Rain = 0
KBO1 111535Z 35010KT 03/01 A2989 RMK A01 T00290010  RH  087%=      5-min Rain = 0
KBO1 111536Z 35010KT 03/01 A2989 RMK A01 T00300011  RH  087%=      5-min Rain = 0
KBO1 111537Z 35009KT 03/01 A2989 RMK A01 T00300010  RH  087%=      5-min Rain = 0
KBO1 111538Z 35011KT 03/01 A2989 RMK A01 T00300010  RH  087%=      5-min Rain = 0
KBO1 111539Z 35010KT 03/01 A2989 RMK A01 T00300011  RH  087%=      5-min Rain = 0
KBO1 111540Z 35012KT 03/01 A2989 RMK A01 T00310011  RH  087%=      5-min Rain = 0
KBO1 111541Z 35014KT 03/01 A2989 RMK A01 T00310011  RH  087%=      5-min Rain = 0
KBO1 111542Z 35012KT 03/01 A2989 RMK A01 T00310010  RH  086%=      5-min Rain = 0
KBO1 111543Z 35010KT 03/01 A2989 RMK A01 T00320011  RH  086%=      5-min Rain = 0
KBO1 111544Z 35013KT 03/01 A299 RMK A01 T00320012  RH  086%=      5-min Rain = 0
KBO1 111545Z 34012KT 03/01 A299 RMK A01 T00320011  RH  086%=      5-min Rain = 0
KBO1 111546Z 35014KT 03/01 A299 RMK A01 T00330011  RH  086%=      5-min Rain = 0
KBO1 111547Z 34011KT 03/01 A299 RMK A01 T00330010  RH  085%=      5-min Rain = 0
KBO1 111548Z 34013KT 03/01 A299 RMK A01 T00330011  RH  085%=      5-min Rain = 0
KBO1 111549Z 34012KT 03/01 A299 RMK A01 T00330010  RH  085%=      5-min Rain = 0
KBO1 111550Z 35013KT 03/01 A299 RMK A01 T00330010  RH  085%=      5-min Rain = 0
KBO1 111551Z 34011KT 03/01 A299 RMK A01 T00330010  RH  085%=      5-min Rain = 0
KBO1 111552Z 35013KT 03/01 A299 RMK A01 T00340010  RH  085%=      5-min Rain = 0
KBO1 111553Z 35012KT 03/01 A299 RMK A01 T00340010  RH  084%=      5-min Rain = 0
KBO1 111554Z 35013KT 03/01 A299 RMK A01 T00340010  RH  084%=      5-min Rain = 0
KBO1 111555Z 35014KT 03/01 A299 RMK A01 T00340010  RH  084%=      5-min Rain = 0
KBO1 111556Z 35013KT 03/01 A299 RMK A01 T00340009  RH  084%=      5-min Rain = 0
KBO1 111557Z 34012KT 04/01 A2991 RMK A01 T00350009  RH  084%=      5-min Rain = 0
KBO1 111558Z 35012KT 04/01 A2991 RMK A01 T00350010  RH  084%=      5-min Rain = 0
KBO1 111559Z 35012KT 04/01 A2991 RMK A01 T00360011  RH  083%=      5-min Rain = 0
KBO1 111600Z 36013KT 04/01 A2991 RMK A01 T00370011  RH  083%=      5-min Rain = 0
KBO1 111601Z 35013KT 04/01 A2991 RMK A01 T00370010  RH  083%=      5-min Rain = 0
KBO1 111602Z 35012KT 04/01 A2991 RMK A01 T00380010  RH  082%=      5-min Rain = 0
KBO1 111603Z 35013KT 04/01 A2991 RMK A01 T00390011  RH  082%=      5-min Rain = 0
KBO1 111604Z 35015KT 04/01 A2991 RMK A01 T00400011  RH  082%=      5-min Rain = 0
KBO1 111605Z 35015KT 04/01 A2991 RMK A01 T00410011  RH  081%=      5-min Rain = 0
KBO1 111606Z 35013KT 04/01 A2991 RMK A01 T00410010  RH  081%=      5-min Rain = 0
KBO1 111607Z 35013KT 04/01 A2991 RMK A01 T00420011  RH  080%=      5-min Rain = 0
KBO1 111608Z 35014KT 04/01 A2991 RMK A01 T00420011  RH  080%=      5-min Rain = 0
KBO1 111609Z 35014KT 04/01 A2991 RMK A01 T00420010  RH  080%=      5-min Rain = 0
KBO1 111610Z 35011KT 04/01 A2991 RMK A01 T00430010  RH  079%=      5-min Rain = 0
KBO1 111611Z 34012KT 04/01 A2991 RMK A01 T00430011  RH  080%=      5-min Rain = 0
KBO1 111612Z 34013KT 04/01 A2991 RMK A01 T00440011  RH  079%=      5-min Rain = 0
KBO1 111613Z 34014KT 04/01 A2991 RMK A01 T00440010  RH  079%=      5-min Rain = 0
KBO1 111614Z 34012KT 04/01 A2991 RMK A01 T00440010  RH  078%=      5-min Rain = 0
KBO1 111615Z 34014KT 05/01 A2991 RMK A01 T00450011  RH  078%=      5-min Rain = 0
KBO1 111616Z 34011KT 05/01 A2991 RMK A01 T00450010  RH  078%=      5-min Rain = 0
KBO1 111617Z 34011KT 05/01 A2991 RMK A01 T00460011  RH  078%=      5-min Rain = 0
KBO1 111618Z 35012KT 05/01 A2991 RMK A01 T00470012  RH  078%=      5-min Rain = 0
KBO1 111619Z 34013KT 05/01 A2991 RMK A01 T00470011  RH  077%=      5-min Rain = 0
KBO1 111620Z 34012KT 05/01 A2991 RMK A01 T00470011  RH  077%=      5-min Rain = 0
KBO1 111621Z 34013KT 05/01 A2991 RMK A01 T00470011  RH  077%=      5-min Rain = 0
KBO1 111622Z 34014KT 05/01 A2991 RMK A01 T00470011  RH  077%=      5-min Rain = 0
KBO1 111623Z 33014KT 05/01 A2991 RMK A01 T00470011  RH  077%=      5-min Rain = 0
KBO1 111624Z 33013KT 05/01 A2991 RMK A01 T00470011  RH  077%=      5-min Rain = 0
KBO1 111625Z 33014KT 05/01 A2991 RMK A01 T00480013  RH  078%=      5-min Rain = 0
KBO1 111626Z 33013KT 05/01 A2991 RMK A01 T00470013  RH  078%=      5-min Rain = 0
KBO1 111627Z 33013KT 05/01 A2992 RMK A01 T00470013  RH  079%=      5-min Rain = 0
KBO1 111628Z 33013KT 05/01 A2992 RMK A01 T00470013  RH  079%=      5-min Rain = 0
KBO1 111629Z 33011KT 05/02 A2992 RMK A01 T00480015  RH  079%=      5-min Rain = 0
KBO1 111630Z 33011G16KT 05/02 A2993 RMK A01 T00490016  RH  079%=      5-min Rain = 0
KBO1 111631Z 33012KT 05/02 A2993 RMK A01 T00500015  RH  078%=      5-min Rain = 0
KBO1 111632Z 33014KT 05/01 A2993 RMK A01 T00500014  RH  078%=      5-min Rain = 0
KBO1 111633Z 33012KT 05/01 A2992 RMK A01 T00500014  RH  077%=      5-min Rain = 0
KBO1 111634Z 33014KT 05/02 A2992 RMK A01 T00510015  RH  078%=      5-min Rain = 0
KBO1 111635Z 34013KT 05/01 A2992 RMK A01 T00510014  RH  077%=      5-min Rain = 0
KBO1 111636Z 33010KT 05/01 A2992 RMK A01 T00510014  RH  077%=      5-min Rain = 0
KBO1 111637Z 33012KT 05/02 A2992 RMK A01 T00510015  RH  078%=      5-min Rain = 0
KBO1 111638Z 33013KT 05/01 A2992 RMK A01 T00510014  RH  077%=      5-min Rain = 0
KBO1 111639Z 33013KT 05/02 A2993 RMK A01 T00510015  RH  077%=      5-min Rain = 0
KBO1 111640Z 33011KT 05/01 A2993 RMK A01 T00500014  RH  078%=      5-min Rain = 0
KBO1 111641Z 33011KT 05/02 A2993 RMK A01 T00500015  RH  078%=      5-min Rain = 0
KBO1 111642Z 33012KT 05/02 A2993 RMK A01 T00510015  RH  078%=      5-min Rain = 0
KBO1 111643Z 33013KT 05/02 A2993 RMK A01 T00510015  RH  077%=      5-min Rain = 0
KBO1 111644Z 33013KT 05/01 A2993 RMK A01 T00510014  RH  077%=      5-min Rain = 0
KBO1 111645Z 34014KT 05/01 A2993 RMK A01 T00510014  RH  077%=      5-min Rain = 0
KBO1 111646Z 33013KT 05/01 A2993 RMK A01 T00500013  RH  077%=      5-min Rain = 0
KBO1 111647Z 33011KT 05/01 A2993 RMK A01 T00500014  RH  078%=      5-min Rain = 0
KBO1 111648Z 34013KT 05/02 A2993 RMK A01 T00510015  RH  078%=      5-min Rain = 0
KBO1 111649Z 32012KT 05/02 A2993 RMK A01 T00510015  RH  077%=      5-min Rain = 0
KBO1 111650Z 32014KT 05/01 A2993 RMK A01 T00510014  RH  077%=      5-min Rain = 0
KBO1 111651Z 32015KT 05/01 A2993 RMK A01 T00490013  RH  077%=      5-min Rain = 0
KBO1 111652Z 32014KT 05/01 A2993 RMK A01 T00480013  RH  078%=      5-min Rain = 0
KBO1 111653Z 32014KT 05/01 A2993 RMK A01 T00480014  RH  079%=      5-min Rain = 0
KBO1 111654Z 32013KT 05/01 A2993 RMK A01 T00480014  RH  079%=      5-min Rain = 0
KBO1 111655Z 32013KT 05/01 A2994 RMK A01 T00480014  RH  079%=      5-min Rain = 0
KBO1 111656Z 32014KT 05/01 A2994 RMK A01 T00470013  RH  079%=      5-min Rain = 0
KBO1 111657Z 32013KT 05/01 A2994 RMK A01 T00470014  RH  079%=      5-min Rain = 0
KBO1 111658Z 33013KT 05/01 A2994 RMK A01 T00470014  RH  079%=      5-min Rain = 0
KBO1 111659Z 32014KT 05/01 A2993 RMK A01 T00470014  RH  079%=      5-min Rain = 0
KBO1 111700Z 32015KT 05/01 A2993 RMK A01 T00460013  RH  079%=      5-min Rain = 0
KBO1 111701Z 32014KT 05/01 A2993 RMK A01 T00450013  RH  080%=      5-min Rain = 0
KBO1 111702Z 32012KT 05/01 A2993 RMK A01 T00450013  RH  080%=      5-min Rain = 0
KBO1 111703Z 32013KT 05/01 A2993 RMK A01 T00450014  RH  080%=      5-min Rain = 0
KBO1 111704Z 32012KT 05/01 A2994 RMK A01 T00450014  RH  080%=      5-min Rain = 0
KBO1 111705Z 32012KT 05/01 A2994 RMK A01 T00460013  RH  080%=      5-min Rain = 0
KBO1 111706Z 33013KT 05/01 A2993 RMK A01 T00460013  RH  079%=      5-min Rain = 0
KBO1 111707Z 33011KT 05/01 A2993 RMK A01 T00470013  RH  079%=      5-min Rain = 0
KBO1 111708Z 32014KT 05/01 A2993 RMK A01 T00470013  RH  079%=      5-min Rain = 0
KBO1 111709Z 32012KT 05/01 A2993 RMK A01 T00470014  RH  079%=      5-min Rain = 0
KBO1 111710Z 32012KT 05/01 A2993 RMK A01 T00470013  RH  079%=      5-min Rain = 0
KBO1 111711Z 32013KT 05/01 A2993 RMK A01 T00480013  RH  078%=      5-min Rain = 0
KBO1 111712Z 32014KT 05/01 A2993 RMK A01 T00470012  RH  078%=      5-min Rain = 0
KBO1 111713Z 33012KT 05/01 A2993 RMK A01 T00470012  RH  078%=      5-min Rain = 0
KBO1 111714Z 32012KT 05/01 A2993 RMK A01 T00480012  RH  078%=      5-min Rain = 0
KBO1 111715Z 33014KT 05/01 A2993 RMK A01 T00480012  RH  077%=      5-min Rain = 0
KBO1 111716Z 33013KT 05/01 A2993 RMK A01 T00490010  RH  076%=      5-min Rain = 0
KBO1 111717Z 33015KT 05/01 A2992 RMK A01 T00490009  RH  075%=      5-min Rain = 0
KBO1 111718Z 33013KT 05/01 A2992 RMK A01 T00490008  RH  075%=      5-min Rain = 0
KBO1 111719Z 33013KT 05/01 A2992 RMK A01 T00500010  RH  075%=      5-min Rain = 0
KBO1 111720Z 33013KT 05/01 A2992 RMK A01 T00510009  RH  075%=      5-min Rain = 0
KBO1 111721Z 33014KT 05/01 A2992 RMK A01 T00500009  RH  074%=      5-min Rain = 0
KBO1 111722Z 33013KT 05/01 A2992 RMK A01 T00500009  RH  075%=      5-min Rain = 0
KBO1 111723Z 33013KT 05/01 A2993 RMK A01 T00500009  RH  074%=      5-min Rain = 0
KBO1 111724Z 34013KT 05/01 A2993 RMK A01 T00510009  RH  074%=      5-min Rain = 0
KBO1 111725Z 34016KT 05/01 A2993 RMK A01 T00510007  RH  073%=      5-min Rain = 0
KBO1 111726Z 33015KT 05/01 A2993 RMK A01 T00510006  RH  073%=      5-min Rain = 0
KBO1 111727Z 33013KT 05/01 A2993 RMK A01 T00510007  RH  073%=      5-min Rain = 0
KBO1 111728Z 33014KT 05/01 A2993 RMK A01 T00520008  RH  074%=      5-min Rain = 0
KBO1 111729Z 33015KT 05/01 A2992 RMK A01 T00520009  RH  073%=      5-min Rain = 0
KBO1 111730Z 34014KT 05/01 A2992 RMK A01 T00520007  RH  072%=      5-min Rain = 0
KBO1 111731Z 33014G20KT 05/01 A2992 RMK A01 T00520005  RH  072%=      5-min Rain = 0
KBO1 111732Z 34015KT 05/01 A2992 RMK A01 T00530005  RH  071%=      5-min Rain = 0
KBO1 111733Z 34016KT 05/00 A2992 RMK A01 T00530004  RH  071%=      5-min Rain = 0
KBO1 111734Z 34017KT 05/00 A2992 RMK A01 T00530004  RH  071%=      5-min Rain = 0
KBO1 111735Z 34015KT 05/00 A2992 RMK A01 T00520002  RH  070%=      5-min Rain = 0
KBO1 111741Z 33016KT 05/00 A2991 RMK A01 T00520000  RH  069%=      5-min Rain = 0
KBO1 111742Z 33015KT 05/M00 A2991 RMK A01 T00521001  RH  069%=      5-min Rain = 0
KBO1 111743Z 33015KT 05/M00 A2991 RMK A01 T00521001  RH  068%=      5-min Rain = 0
KBO1 111744Z 33017KT 05/M00 A2991 RMK A01 T00521002  RH  068%=      5-min Rain = 0
KBO1 111745Z 33016KT 05/M00 A2991 RMK A01 T00521004  RH  067%=      5-min Rain = 0
KBO1 111746Z 34013KT 05/M00 A2991 RMK A01 T00521003  RH  067%=      5-min Rain = 0
KBO1 111747Z 34014KT 05/M00 A2991 RMK A01 T00531003  RH  067%=      5-min Rain = 0
KBO1 111748Z 34014KT 05/M00 A2991 RMK A01 T00531004  RH  067%=      5-min Rain = 0
KBO1 111749Z 34018KT 05/M00 A2991 RMK A01 T00531004  RH  066%=      5-min Rain = 0
KBO1 111750Z 34015KT 05/M01 A2991 RMK A01 T00531005  RH  066%=      5-min Rain = 0
KBO1 111751Z 33015KT 05/M00 A2991 RMK A01 T00531004  RH  066%=      5-min Rain = 0
KBO1 111752Z 34014KT 05/M01 A2991 RMK A01 T00531006  RH  066%=      5-min Rain = 0
KBO1 111753Z 34014KT 05/M01 A2991 RMK A01 T00531006  RH  066%=      5-min Rain = 0
KBO1 111754Z 33016G21KT 05/M01 A2991 RMK A01 T00531005  RH  066%=      5-min Rain = 0
KBO1 111755Z 33018KT 05/M01 A2991 RMK A01 T00521008  RH  065%=      5-min Rain = 0
KBO1 111756Z 34015KT 05/M01 A2992 RMK A01 T00521009  RH  065%=      5-min Rain = 0
KBO1 111757Z 33015KT 05/M01 A2992 RMK A01 T00521008  RH  065%=      5-min Rain = 0
KBO1 111758Z 33015KT 05/M01 A2992 RMK A01 T00521008  RH  065%=      5-min Rain = 0
KBO1 111759Z 33018KT 05/M01 A2992 RMK A01 T00531008  RH  065%=      5-min Rain = 0
KBO1 111800Z 33018KT 05/M01 A2992 RMK A01 T00521010  RH  064%=      5-min Rain = 0
KBO1 111801Z 34018KT 05/M01 A2992 RMK A01 T00511010  RH  064%=      5-min Rain = 0
KBO1 111802Z 34016KT 05/M01 A2992 RMK A01 T00511009  RH  065%=      5-min Rain = 0
KBO1 111803Z 34014KT 05/M01 A2992 RMK A01 T00511009  RH  065%=      5-min Rain = 0
KBO1 111804Z 34014KT 05/M01 A2991 RMK A01 T00521008  RH  065%=      5-min Rain = 0
KBO1 111805Z 34016KT 05/M01 A2991 RMK A01 T00521008  RH  065%=      5-min Rain = 0
KBO1 111806Z 34013KT 05/M01 A2991 RMK A01 T00521007  RH  066%=      5-min Rain = 0
KBO1 111807Z 34015KT 05/M01 A2991 RMK A01 T00521006  RH  066%=      5-min Rain = 0
KBO1 111808Z 34016KT 05/M01 A2991 RMK A01 T00531006  RH  066%=      5-min Rain = 0
KBO1 111809Z 33013KT 05/M01 A2991 RMK A01 T00531005  RH  066%=      5-min Rain = 0
KBO1 111810Z 33012KT 06/M00 A2991 RMK A01 T00551004  RH  066%=      5-min Rain = 0
KBO1 111811Z 33014KT 06/M00 A2991 RMK A01 T00561003  RH  066%=      5-min Rain = 0
KBO1 111812Z 33015KT 06/M00 A2991 RMK A01 T00561004  RH  065%=      5-min Rain = 0
KBO1 111813Z 34014KT 06/M01 A2991 RMK A01 T00551005  RH  065%=      5-min Rain = 0
KBO1 111814Z 33014KT 05/M01 A2991 RMK A01 T00541005  RH  066%=      5-min Rain = 0
KBO1 111815Z 34012KT 05/M00 A2991 RMK A01 T00531004  RH  066%=      5-min Rain = 0
KBO1 111816Z 34013KT 05/M00 A2991 RMK A01 T00531003  RH  067%=      5-min Rain = 0
KBO1 111817Z 34014KT 05/M00 A2991 RMK A01 T00531003  RH  067%=      5-min Rain = 0
KBO1 111818Z 33012KT 05/M00 A2991 RMK A01 T00521003  RH  068%=      5-min Rain = 0
KBO1 111819Z 33012KT 05/M00 A2991 RMK A01 T00511002  RH  068%=      5-min Rain = 0
KBO1 111820Z 32010KT 05/M00 A2991 RMK A01 T00521001  RH  069%=      5-min Rain = 0
KBO1 111821Z 32011KT 05/00 A2991 RMK A01 T00520001  RH  069%=      5-min Rain = 0
KBO1 111822Z 33012KT 05/00 A2991 RMK A01 T00520001  RH  069%=      5-min Rain = 0
KBO1 111823Z 33013KT 05/00 A2991 RMK A01 T00520001  RH  070%=      5-min Rain = 0
KBO1 111824Z 32012KT 05/00 A2991 RMK A01 T00520002  RH  070%=      5-min Rain = 0
KBO1 111825Z 32011KT 05/00 A2991 RMK A01 T00520003  RH  070%=      5-min Rain = 0
KBO1 111826Z 32012KT 05/00 A2991 RMK A01 T00520004  RH  071%=      5-min Rain = 0
KBO1 111827Z 32015KT 05/00 A299 RMK A01 T00520004  RH  071%=      5-min Rain = 0
KBO1 111828Z 32014KT 05/00 A299 RMK A01 T00520004  RH  071%=      5-min Rain = 0
KBO1 111829Z 32011KT 05/01 A299 RMK A01 T00520005  RH  071%=      5-min Rain = 0
KBO1 111830Z 32012KT 05/01 A299 RMK A01 T00530006  RH  072%=      5-min Rain = 0
KBO1 111831Z 33014KT 06/01 A299 RMK A01 T00550008  RH  072%=      5-min Rain = 0
KBO1 111832Z 31013KT 06/01 A299 RMK A01 T00550007  RH  071%=      5-min Rain = 0
KBO1 111833Z 32013KT 05/01 A299 RMK A01 T00540007  RH  072%=      5-min Rain = 0
KBO1 111834Z 32014KT 05/01 A299 RMK A01 T00540008  RH  072%=      5-min Rain = 0
KBO1 111835Z 32013KT 05/01 A299 RMK A01 T00540008  RH  072%=      5-min Rain = 0
KBO1 111836Z 31014KT 06/01 A299 RMK A01 T00550009  RH  072%=      5-min Rain = 0
KBO1 111837Z 32013KT 06/01 A299 RMK A01 T00550009  RH  072%=      5-min Rain = 0
KBO1 111838Z 31011KT 06/01 A299 RMK A01 T00560009  RH  072%=      5-min Rain = 0
KBO1 111839Z 31013KT 06/01 A299 RMK A01 T00570009  RH  071%=      5-min Rain = 0
KBO1 111840Z 33016KT 06/01 A299 RMK A01 T00570006  RH  069%=      5-min Rain = 0
KBO1 111841Z 33015KT 06/00 A299 RMK A01 T00560003  RH  069%=      5-min Rain = 0
KBO1 111842Z 33013KT 06/00 A299 RMK A01 T00550001  RH  068%=      5-min Rain = 0
KBO1 111843Z 33013KT 06/00 A2991 RMK A01 T005500-0  RH  068%=      5-min Rain = 0
KBO1 111844Z 32014KT 06/00 A299 RMK A01 T00550000  RH  067%=      5-min Rain = 0
KBO1 111845Z 32013KT 06/00 A299 RMK A01 T00560000  RH  068%=      5-min Rain = 0
KBO1 111846Z 32015KT 06/M00 A299 RMK A01 T00561001  RH  067%=      5-min Rain = 0
KBO1 111847Z 33013KT 06/M00 A299 RMK A01 T00561004  RH  065%=      5-min Rain = 0
KBO1 111848Z 33016KT 06/M01 A299 RMK A01 T00561005  RH  065%=      5-min Rain = 0
KBO1 111849Z 34015KT 06/M00 A299 RMK A01 T00561004  RH  065%=      5-min Rain = 0
KBO1 111850Z 33014KT 06/M00 A299 RMK A01 T00561004  RH  066%=      5-min Rain = 0
KBO1 111851Z 32014KT 06/M00 A299 RMK A01 T00561003  RH  066%=      5-min Rain = 0
KBO1 111852Z 32013KT 06/M00 A299 RMK A01 T00571004  RH  065%=      5-min Rain = 0
KBO1 111853Z 32015KT 06/M00 A299 RMK A01 T00571004  RH  065%=      5-min Rain = 0
KBO1 111854Z 32012KT 06/M01 A299 RMK A01 T00571006  RH  064%=      5-min Rain = 0
KBO1 111855Z 32013G18KT 06/M01 A299 RMK A01 T00581005  RH  064%=      5-min Rain = 0
KBO1 111856Z 33017KT 06/M01 A299 RMK A01 T00591006  RH  063%=      5-min Rain = 0
KBO1 111857Z 32014KT 06/M01 A299 RMK A01 T00591007  RH  063%=      5-min Rain = 0
KBO1 111858Z 33015KT 06/M01 A299 RMK A01 T00591007  RH  063%=      5-min Rain = 0
KBO1 111859Z 34016KT 06/M01 A299 RMK A01 T00581009  RH  062%=      5-min Rain = 0
KBO1 111900Z 34014KT 06/M01 A299 RMK A01 T00561009  RH  063%=      5-min Rain = 0
KBO1 111901Z 33013KT 06/M01 A299 RMK A01 T00561007  RH  064%=      5-min Rain = 0
KBO1 111902Z 33016KT 06/M01 A299 RMK A01 T00571009  RH  063%=      5-min Rain = 0
KBO1 111903Z 33015KT 06/M01 A299 RMK A01 T00561011  RH  062%=      5-min Rain = 0
KBO1 111904Z 33014KT 06/M01 A299 RMK A01 T00561010  RH  063%=      5-min Rain = 0
KBO1 111905Z 32016KT 06/M01 A299 RMK A01 T00561010  RH  062%=      5-min Rain = 0
KBO1 111906Z 33015KT 06/M01 A299 RMK A01 T00551011  RH  062%=      5-min Rain = 0
KBO1 111907Z 32015KT 06/M01 A299 RMK A01 T00551011  RH  063%=      5-min Rain = 0
KBO1 111908Z 32016KT 05/M01 A2989 RMK A01 T00541013  RH  062%=      5-min Rain = 0
KBO1 111909Z 33015KT 05/M01 A2989 RMK A01 T00531013  RH  062%=      5-min Rain = 0
KBO1 111910Z 32017KT 05/M01 A2989 RMK A01 T00541013  RH  062%=      5-min Rain = 0
KBO1 111911Z 33016KT 05/M02 A2989 RMK A01 T00541015  RH  061%=      5-min Rain = 0
KBO1 111912Z 33013KT 05/M02 A2989 RMK A01 T00541015  RH  061%=      5-min Rain = 0
KBO1 111913Z 33017KT 05/M01 A2989 RMK A01 T00541014  RH  062%=      5-min Rain = 0
KBO1 111914Z 33015KT 05/M01 A2989 RMK A01 T00541014  RH  062%=      5-min Rain = 0
KBO1 111915Z 33014KT 05/M01 A2989 RMK A01 T00541014  RH  062%=      5-min Rain = 0
KBO1 111916Z 33015KT 05/M01 A2989 RMK A01 T00531013  RH  062%=      5-min Rain = 0
KBO1 111917Z 33015KT 05/M01 A2989 RMK A01 T00541013  RH  062%=      5-min Rain = 0
KBO1 111918Z 33015G21KT 05/M01 A2989 RMK A01 T00531013  RH  062%=      5-min Rain = 0
KBO1 111919Z 33016KT 05/M01 A2989 RMK A01 T00531014  RH  062%=      5-min Rain = 0
KBO1 111920Z 33016KT 05/M01 A2989 RMK A01 T00541014  RH  062%=      5-min Rain = 0
KBO1 111921Z 33014KT 05/M01 A2989 RMK A01 T00531014  RH  062%=      5-min Rain = 0
KBO1 111922Z 33014KT 05/M01 A2989 RMK A01 T00531013  RH  062%=      5-min Rain = 0
KBO1 111923Z 34013KT 05/M01 A2989 RMK A01 T00541012  RH  062%=      5-min Rain = 0
KBO1 111924Z 34014KT 05/M01 A2989 RMK A01 T00541011  RH  063%=      5-min Rain = 0
KBO1 111925Z 34016KT 05/M01 A2989 RMK A01 T00541012  RH  062%=      5-min Rain = 0
KBO1 111926Z 34016KT 05/M01 A2989 RMK A01 T00541014  RH  061%=      5-min Rain = 0
KBO1 111927Z 34019KT 05/M01 A2989 RMK A01 T00541014  RH  061%=      5-min Rain = 0
KBO1 111928Z 33016KT 05/M02 A2989 RMK A01 T00541015  RH  061%=      5-min Rain = 0
KBO1 111929Z 34015KT 05/M01 A2989 RMK A01 T00541014  RH  061%=      5-min Rain = 0
KBO1 111930Z 34015KT 06/M01 A2989 RMK A01 T00561012  RH  062%=      5-min Rain = 0
KBO1 111931Z 34015KT 06/M01 A2989 RMK A01 T00561012  RH  061%=      5-min Rain = 0
KBO1 111932Z 35014KT 06/M01 A2989 RMK A01 T00571013  RH  061%=      5-min Rain = 0
KBO1 111933Z 34016KT 06/M01 A2989 RMK A01 T00571014  RH  060%=      5-min Rain = 0
KBO1 111934Z 35014KT 06/M01 A2988 RMK A01 T00571014  RH  060%=      5-min Rain = 0
KBO1 111935Z 34018KT 06/M02 A2988 RMK A01 T00571015  RH  060%=      5-min Rain = 0
KBO1 111936Z 34017KT 06/M02 A2988 RMK A01 T00571015  RH  060%=      5-min Rain = 0
KBO1 111937Z 34018KT 06/M02 A2988 RMK A01 T00561015  RH  060%=      5-min Rain = 0
KBO1 111938Z 34016KT 06/M02 A2988 RMK A01 T00551015  RH  060%=      5-min Rain = 0
KBO1 111939Z 33016G22KT 06/M02 A2988 RMK A01 T00561015  RH  061%=      5-min Rain = 0
KBO1 111940Z 34016KT 06/M02 A2988 RMK A01 T00551016  RH  060%=      5-min Rain = 0
KBO1 111941Z 34014KT 06/M01 A2989 RMK A01 T00551014  RH  061%=      5-min Rain = 0
KBO1 111942Z 33016KT 06/M01 A2988 RMK A01 T00551014  RH  061%=      5-min Rain = 0
KBO1 111943Z 34016KT 05/M01 A2988 RMK A01 T00541014  RH  061%=      5-min Rain = 0
KBO1 111944Z 36015KT 05/M01 A2989 RMK A01 T00541014  RH  062%=      5-min Rain = 0
KBO1 111945Z 35013G18KT 05/M01 A2988 RMK A01 T00541013  RH  062%=      5-min Rain = 0
KBO1 111946Z 35014KT 06/M01 A2988 RMK A01 T00551012  RH  062%=      5-min Rain = 0
KBO1 111947Z 34014KT 06/M01 A2988 RMK A01 T00551012  RH  062%=      5-min Rain = 0
KBO1 111948Z 34014KT 06/M01 A2988 RMK A01 T00551012  RH  062%=      5-min Rain = 0
KBO1 111949Z 34015KT 06/M01 A2988 RMK A01 T00551012  RH  062%=      5-min Rain = 0
KBO1 111950Z 33016KT 06/M01 A2988 RMK A01 T00561012  RH  062%=      5-min Rain = 0
KBO1 111951Z 33015KT 06/M01 A2988 RMK A01 T00551013  RH  062%=      5-min Rain = 0
KBO1 111952Z 33014G19KT 06/M01 A2988 RMK A01 T00551012  RH  062%=      5-min Rain = 0
KBO1 111953Z 32015KT 06/M01 A2988 RMK A01 T00551012  RH  062%=      5-min Rain = 0
KBO1 111954Z 33014KT 06/M01 A2988 RMK A01 T00551012  RH  062%=      5-min Rain = 0
KBO1 111955Z 34014KT 06/M01 A2988 RMK A01 T00561011  RH  062%=      5-min Rain = 0
KBO1 111956Z 35011KT 06/M01 A2988 RMK A01 T00571011  RH  062%=      5-min Rain = 0
KBO1 111957Z 34013KT 06/M01 A2988 RMK A01 T00581010  RH  062%=      5-min Rain = 0
KBO1 111958Z 34014G20KT 06/M01 A2989 RMK A01 T00591010  RH  061%=      5-min Rain = 0
KBO1 111959Z 34017KT 06/M01 A2989 RMK A01 T00601013  RH  060%=      5-min Rain = 0
KBO1 112000Z 34015KT 06/M02 A2989 RMK A01 T00571015  RH  060%=      5-min Rain = 0
KBO1 112001Z 34015KT 06/M01 A2989 RMK A01 T00571014  RH  060%=      5-min Rain = 0
KBO1 112002Z 34014KT 06/M01 A2989 RMK A01 T00561014  RH  061%=      5-min Rain = 0
KBO1 112003Z 34014KT 06/M01 A2989 RMK A01 T00561014  RH  061%=      5-min Rain = 0
KBO1 112004Z 34015KT 06/M01 A2989 RMK A01 T00561013  RH  061%=      5-min Rain = 0
KBO1 112005Z 34016KT 06/M01 A2989 RMK A01 T00561014  RH  061%=      5-min Rain = 0
KBO1 112006Z 34017KT 06/M01 A2989 RMK A01 T00551014  RH  061%=      5-min Rain = 0
KBO1 112007Z 33017KT 05/M01 A2989 RMK A01 T00531014  RH  062%=      5-min Rain = 0
KBO1 112008Z 33013KT 05/M01 A2989 RMK A01 T00521014  RH  062%=      5-min Rain = 0
KBO1 112009Z 33013KT 05/M01 A2989 RMK A01 T00521013  RH  063%=      5-min Rain = 0
KBO1 112010Z 34015KT 05/M01 A2989 RMK A01 T00521012  RH  063%=      5-min Rain = 0
KBO1 112011Z 34015KT 05/M01 A2989 RMK A01 T00531012  RH  063%=      5-min Rain = 0
KBO1 112012Z 34014KT 05/M01 A2989 RMK A01 T00521012  RH  063%=      5-min Rain = 0
KBO1 112013Z 33014KT 05/M01 A2989 RMK A01 T00521011  RH  064%=      5-min Rain = 0
KBO1 112014Z 34016KT 05/M01 A2989 RMK A01 T00521011  RH  064%=      5-min Rain = 0
KBO1 112015Z 34014KT 05/M01 A2988 RMK A01 T00521010  RH  064%=      5-min Rain = 0
KBO1 112016Z 34015KT 05/M01 A2989 RMK A01 T00521010  RH  064%=      5-min Rain = 0
KBO1 112017Z 33013KT 05/M01 A2988 RMK A01 T00521010  RH  064%=      5-min Rain = 0
KBO1 112018Z 33014KT 05/M01 A2988 RMK A01 T00521010  RH  064%=      5-min Rain = 0
KBO1 112019Z 33014KT 05/M01 A2988 RMK A01 T00521010  RH  064%=      5-min Rain = 0
KBO1 112020Z 34014KT 05/M01 A2988 RMK A01 T00521010  RH  064%=      5-min Rain = 0
KBO1 112021Z 34013KT 05/M01 A2988 RMK A01 T00521010  RH  064%=      5-min Rain = 0
KBO1 112022Z 34013KT 05/M01 A2988 RMK A01 T00521010  RH  064%=      5-min Rain = 0
KBO1 112023Z 35013KT 05/M01 A2988 RMK A01 T00531010  RH  064%=      5-min Rain = 0
KBO1 112024Z 34012KT 05/M01 A2988 RMK A01 T00531010  RH  064%=      5-min Rain = 0
KBO1 112025Z 34013KT 05/M01 A2988 RMK A01 T00541009  RH  064%=      5-min Rain = 0
KBO1 112026Z 33014KT 06/M01 A2988 RMK A01 T00551009  RH  064%=      5-min Rain = 0
KBO1 112027Z 34015KT 06/M01 A2988 RMK A01 T00551009  RH  063%=      5-min Rain = 0
KBO1 112028Z 35014KT 06/M01 A2988 RMK A01 T00551009  RH  063%=      5-min Rain = 0
KBO1 112029Z 34014KT 06/M01 A2988 RMK A01 T00571010  RH  062%=      5-min Rain = 0
KBO1 112030Z 33015KT 06/M01 A2988 RMK A01 T00571009  RH  063%=      5-min Rain = 0
KBO1 112031Z 34015KT 06/M01 A2988 RMK A01 T00571009  RH  062%=      5-min Rain = 0
KBO1 112032Z 34014KT 06/M01 A2988 RMK A01 T00581009  RH  062%=      5-min Rain = 0
KBO1 112033Z 33013KT 06/M01 A2988 RMK A01 T00581009  RH  062%=      5-min Rain = 0
KBO1 112034Z 33013KT 06/M01 A2988 RMK A01 T00581009  RH  062%=      5-min Rain = 0
KBO1 112035Z 35015KT 06/M01 A2988 RMK A01 T00591008  RH  062%=      5-min Rain = 0
KBO1 112036Z 35016KT 06/M01 A2988 RMK A01 T00591009  RH  062%=      5-min Rain = 0
KBO1 112037Z 33017KT 06/M01 A2988 RMK A01 T00591009  RH  062%=      5-min Rain = 0
KBO1 112038Z 34015KT 06/M01 A2988 RMK A01 T00591009  RH  062%=      5-min Rain = 0
KBO1 112039Z 33014KT 06/M01 A2988 RMK A01 T00591009  RH  062%=      5-min Rain = 0
KBO1 112040Z 33015KT 06/M01 A2988 RMK A01 T00591008  RH  062%=      5-min Rain = 0
KBO1 112041Z 34015KT 06/M01 A2988 RMK A01 T00581008  RH  062%=      5-min Rain = 0
KBO1 112042Z 33012KT 06/M01 A2988 RMK A01 T00581008  RH  062%=      5-min Rain = 0
KBO1 112043Z 33012KT 06/M01 A2988 RMK A01 T00601007  RH  062%=      5-min Rain = 0
KBO1 112044Z 34014KT 06/M01 A2988 RMK A01 T00611006  RH  062%=      5-min Rain = 0
KBO1 112045Z 35011KT 06/M01 A2988 RMK A01 T00611006  RH  062%=      5-min Rain = 0
KBO1 112046Z 34013KT 06/M00 A2988 RMK A01 T00631002  RH  063%=      5-min Rain = 0
KBO1 112047Z 34016KT 06/M00 A2988 RMK A01 T00641004  RH  062%=      5-min Rain = 0
KBO1 112048Z 35017KT 06/M01 A2988 RMK A01 T00621006  RH  062%=      5-min Rain = 0
KBO1 112049Z 35016KT 06/M01 A2988 RMK A01 T00591006  RH  063%=      5-min Rain = 0
KBO1 112050Z 35018KT 06/M01 A2988 RMK A01 T00591005  RH  064%=      5-min Rain = 0
KBO1 112051Z 35014KT 06/M00 A2988 RMK A01 T00581004  RH  064%=      5-min Rain = 0
KBO1 112052Z 35015G20KT 06/M00 A2988 RMK A01 T00571004  RH  065%=      5-min Rain = 0
KBO1 112053Z 34016KT 06/M00 A2988 RMK A01 T00581003  RH  065%=      5-min Rain = 0
KBO1 112054Z 34016KT 06/M00 A2988 RMK A01 T00581003  RH  065%=      5-min Rain = 0
KBO1 112055Z 34014KT 06/M00 A2988 RMK A01 T00571004  RH  065%=      5-min Rain = 0
KBO1 112056Z 34017KT 06/M00 A2988 RMK A01 T00571002  RH  066%=      5-min Rain = 0
KBO1 112057Z 34017KT 06/M00 A2988 RMK A01 T00561003  RH  066%=      5-min Rain = 0
KBO1 112058Z 35014KT 05/M00 A2988 RMK A01 T00541004  RH  066%=      5-min Rain = 0
KBO1 112059Z 34013KT 05/M00 A2988 RMK A01 T00541003  RH  067%=      5-min Rain = 0
KBO1 112100Z 33015KT 05/M00 A2988 RMK A01 T00541003  RH  067%=      5-min Rain = 0
KBO1 112101Z 35014KT 05/M00 A2988 RMK A01 T00541003  RH  067%=      5-min Rain = 0
KBO1 112102Z 35014KT 05/M00 A2988 RMK A01 T00541002  RH  067%=      5-min Rain = 0
KBO1 112103Z 35015KT 05/M00 A2988 RMK A01 T00531002  RH  068%=      5-min Rain = 0
KBO1 112104Z 35012KT 05/M00 A2989 RMK A01 T00531001  RH  068%=      5-min Rain = 0
KBO1 112105Z 35016KT 05/00 A2989 RMK A01 T005300-0  RH  069%=      5-min Rain = 0
KBO1 112106Z 35015KT 05/00 A2989 RMK A01 T005300-0  RH  068%=      5-min Rain = 0
KBO1 112107Z 35013KT 05/00 A2989 RMK A01 T005300-0  RH  068%=      5-min Rain = 0
KBO1 112108Z 34013KT 05/00 A2989 RMK A01 T00530000  RH  069%=      5-min Rain = 0
KBO1 112109Z 34014KT 05/00 A2989 RMK A01 T00530001  RH  069%=      5-min Rain = 0
KBO1 112110Z 34014KT 05/00 A2989 RMK A01 T00540001  RH  069%=      5-min Rain = 0
KBO1 112111Z 34016KT 05/00 A2989 RMK A01 T00540001  RH  069%=      5-min Rain = 0
KBO1 112112Z 34016KT 05/00 A2989 RMK A01 T00540001  RH  069%=      5-min Rain = 0
KBO1 112113Z 34015KT 05/00 A2989 RMK A01 T00540002  RH  069%=      5-min Rain = 0
KBO1 112114Z 34014KT 05/00 A2989 RMK A01 T00540002  RH  069%=      5-min Rain = 0
KBO1 112115Z 35015KT 05/00 A2989 RMK A01 T00540003  RH  069%=      5-min Rain = 0
KBO1 112116Z 34017KT 06/00 A2989 RMK A01 T00550003  RH  069%=      5-min Rain = 0
KBO1 112117Z 34019KT 06/00 A2988 RMK A01 T00550003  RH  069%=      5-min Rain = 0
KBO1 112118Z 34017KT 05/00 A2989 RMK A01 T00540003  RH  069%=      5-min Rain = 0
KBO1 112119Z 34016KT 05/00 A2989 RMK A01 T00530003  RH  070%=      5-min Rain = 0
KBO1 112120Z 34015KT 05/00 A2989 RMK A01 T00530004  RH  070%=      5-min Rain = 0
KBO1 112121Z 34014KT 05/00 A2989 RMK A01 T00520004  RH  071%=      5-min Rain = 0
KBO1 112122Z 34017KT 05/00 A2989 RMK A01 T00530004  RH  071%=      5-min Rain = 0
KBO1 112123Z 34014KT 05/00 A2989 RMK A01 T00520004  RH  071%=      5-min Rain = 0
KBO1 112124Z 34016KT 05/00 A2989 RMK A01 T00500004  RH  072%=      5-min Rain = 0
KBO1 112125Z 34014KT 05/00 A2989 RMK A01 T00500004  RH  072%=      5-min Rain = 0
KBO1 112126Z 34016KT 05/01 A2989 RMK A01 T00490005  RH  073%=      5-min Rain = 0
KBO1 112127Z 34014KT 05/01 A2989 RMK A01 T00480005  RH  073%=      5-min Rain = 0
KBO1 112128Z 34016KT 05/01 A2989 RMK A01 T00480005  RH  074%=      5-min Rain = 0
KBO1 112129Z 34015KT 05/01 A299 RMK A01 T00470006  RH  074%=      5-min Rain = 0
KBO1 112130Z 34014KT 05/01 A299 RMK A01 T00470006  RH  075%=      5-min Rain = 0
KBO1 112131Z 34014KT 05/01 A299 RMK A01 T00470006  RH  075%=      5-min Rain = 0
KBO1 112132Z 33015KT 05/01 A299 RMK A01 T00470007  RH  075%=      5-min Rain = 0
KBO1 112133Z 33013KT 05/01 A299 RMK A01 T00460007  RH  075%=      5-min Rain = 0
KBO1 112134Z 33011KT 05/01 A299 RMK A01 T00460008  RH  076%=      5-min Rain = 0
KBO1 112135Z 33015KT 05/01 A299 RMK A01 T00470008  RH  076%=      5-min Rain = 0
KBO1 112136Z 33014KT 05/01 A299 RMK A01 T00460008  RH  076%=      5-min Rain = 0
KBO1 112137Z 34014KT 04/01 A299 RMK A01 T00440008  RH  078%=      5-min Rain = 0
KBO1 112138Z 33013KT 04/01 A299 RMK A01 T00430009  RH  078%=      5-min Rain = 0
KBO1 112139Z 33015KT 04/01 A2991 RMK A01 T00430010  RH  079%=      5-min Rain = 0
KBO1 112140Z 34011KT 04/01 A2991 RMK A01 T00430010  RH  079%=      5-min Rain = 0
KBO1 112141Z 34012KT 04/01 A2991 RMK A01 T00420010  RH  080%=      5-min Rain = 0
KBO1 112142Z 35013KT 04/01 A2991 RMK A01 T00420010  RH  080%=      5-min Rain = 0
KBO1 112143Z 35013KT 04/01 A2991 RMK A01 T00420010  RH  079%=      5-min Rain = 0
KBO1 112144Z 34016KT 04/01 A2991 RMK A01 T00420009  RH  079%=      5-min Rain = 0
KBO1 112145Z 34013KT 04/01 A2991 RMK A01 T00420008  RH  078%=      5-min Rain = 0
KBO1 112146Z 35017KT 04/01 A2991 RMK A01 T00420008  RH  078%=      5-min Rain = 0
KBO1 112147Z 35013KT 04/01 A2991 RMK A01 T00410006  RH  078%=      5-min Rain = 0
KBO1 112148Z 34013KT 04/01 A2991 RMK A01 T00400007  RH  079%=      5-min Rain = 0
KBO1 112149Z 34014KT 04/01 A2991 RMK A01 T00400007  RH  079%=      5-min Rain = 0
KBO1 112150Z 34013KT 04/01 A2991 RMK A01 T00400008  RH  079%=      5-min Rain = 0
KBO1 112151Z 34015KT 04/01 A2991 RMK A01 T00400008  RH  080%=      5-min Rain = 0
KBO1 112152Z 34015KT 04/01 A2991 RMK A01 T00400008  RH  080%=      5-min Rain = 0
KBO1 112153Z 34012KT 04/01 A2991 RMK A01 T00390008  RH  080%=      5-min Rain = 0
KBO1 112154Z 34012KT 04/01 A2991 RMK A01 T00390009  RH  080%=      5-min Rain = 0
KBO1 112155Z 35013KT 04/01 A2991 RMK A01 T00390009  RH  081%=      5-min Rain = 0
KBO1 112156Z 35013KT 04/01 A2991 RMK A01 T00390008  RH  081%=      5-min Rain = 0
KBO1 112157Z 34016KT 04/01 A2992 RMK A01 T00390008  RH  080%=      5-min Rain = 0
KBO1 112158Z 35015KT 04/01 A2992 RMK A01 T00380007  RH  080%=      5-min Rain = 0
KBO1 112159Z 35014KT 04/01 A2992 RMK A01 T00370007  RH  081%=      5-min Rain = 0
KBO1 112200Z 35013KT 04/01 A2992 RMK A01 T00370007  RH  081%=      5-min Rain = 0
KBO1 112201Z 34011KT 04/01 A2992 RMK A01 T00370007  RH  081%=      5-min Rain = 0
KBO1 112202Z 34010KT 04/01 A2992 RMK A01 T00370008  RH  081%=      5-min Rain = 0
KBO1 112203Z 34012KT 04/01 A2992 RMK A01 T00370008  RH  081%=      5-min Rain = 0
KBO1 112204Z 34012KT 04/01 A2992 RMK A01 T00380008  RH  081%=      5-min Rain = 0
KBO1 112205Z 35011KT 04/01 A2992 RMK A01 T00370007  RH  081%=      5-min Rain = 0
KBO1 112206Z 34010KT 04/01 A2992 RMK A01 T00370008  RH  081%=      5-min Rain = 0
KBO1 112207Z 34010KT 04/01 A2992 RMK A01 T00370008  RH  082%=      5-min Rain = 0
KBO1 112208Z 34012KT 04/01 A2992 RMK A01 T00360008  RH  082%=      5-min Rain = 0
KBO1 112209Z 34013KT 04/01 A2992 RMK A01 T00360009  RH  082%=      5-min Rain = 0
KBO1 112210Z 34014KT 04/01 A2992 RMK A01 T00360008  RH  082%=      5-min Rain = 0
KBO1 112211Z 34011KT 04/01 A2992 RMK A01 T00360008  RH  082%=      5-min Rain = 0
KBO1 112212Z 34013KT 04/01 A2992 RMK A01 T00360009  RH  083%=      5-min Rain = 0
KBO1 112213Z 34012KT 04/01 A2992 RMK A01 T00350009  RH  083%=      5-min Rain = 0
KBO1 112214Z 34010KT 04/01 A2992 RMK A01 T00350010  RH  084%=      5-min Rain = 0
KBO1 112215Z 34010KT 04/01 A2992 RMK A01 T00350011  RH  084%=      5-min Rain = 0
KBO1 112216Z 34010KT 04/01 A2992 RMK A01 T00350012  RH  085%=      5-min Rain = 0
KBO1 112217Z 34010KT 04/01 A2992 RMK A01 T00350013  RH  085%=      5-min Rain = 0
KBO1 112218Z 33011KT 04/01 A2992 RMK A01 T00350013  RH  086%=      5-min Rain = 0
KBO1 112219Z 34011KT 03/01 A2992 RMK A01 T00340013  RH  086%=      5-min Rain = 0
KBO1 112220Z 33012KT 03/01 A2992 RMK A01 T00340012  RH  086%=      5-min Rain = 0
KBO1 112221Z 34012KT 03/01 A2992 RMK A01 T00340013  RH  086%=      5-min Rain = 0
KBO1 112222Z 35009KT 03/01 A2992 RMK A01 T00330013  RH  087%=      5-min Rain = 0
KBO1 112223Z 34010KT 03/01 A2992 RMK A01 T00330014  RH  088%=      5-min Rain = 0
KBO1 112224Z 34010KT 03/02 A2992 RMK A01 T00330015  RH  088%=      5-min Rain = 0
KBO1 112225Z 33010KT 03/02 A2992 RMK A01 T00330016  RH  088%=      5-min Rain = 0
KBO1 112226Z 34011KT 03/02 A2992 RMK A01 T00330017  RH  089%=      5-min Rain = 0
KBO1 112227Z 34011KT 03/02 A2992 RMK A01 T00330016  RH  089%=      5-min Rain = 0
KBO1 112228Z 34010KT 03/02 A2992 RMK A01 T00330016  RH  089%=      5-min Rain = 0
KBO1 112229Z 34012KT 03/02 A2992 RMK A01 T00330016  RH  089%=      5-min Rain = 0
KBO1 112230Z 34013KT 03/02 A2992 RMK A01 T00330016  RH  089%=      5-min Rain = 0
KBO1 112231Z 34012KT 03/02 A2992 RMK A01 T00330016  RH  089%=      5-min Rain = 0
KBO1 112232Z 34012KT 03/02 A2992 RMK A01 T00330016  RH  089%=      5-min Rain = 0
KBO1 112233Z 34012KT 03/02 A2992 RMK A01 T00330016  RH  089%=      5-min Rain = 0
KBO1 112234Z 33011KT 03/02 A2992 RMK A01 T00330016  RH  089%=      5-min Rain = 0
KBO1 112235Z 34012KT 03/02 A2992 RMK A01 T00330016  RH  089%=      5-min Rain = 0
KBO1 112236Z 34011KT 03/02 A2992 RMK A01 T00330017  RH  089%=      5-min Rain = 0
KBO1 112237Z 34011KT 03/02 A2992 RMK A01 T00330018  RH  089%=      5-min Rain = 0
KBO1 112238Z 33012KT 03/02 A2991 RMK A01 T00330018  RH  089%=      5-min Rain = 0
KBO1 112239Z 34011KT 03/02 A2992 RMK A01 T00330017  RH  089%=      5-min Rain = 0
KBO1 112240Z 34012KT 03/02 A2992 RMK A01 T00330018  RH  090%=      5-min Rain = 0
KBO1 112241Z 34011KT 03/02 A2992 RMK A01 T00330018  RH  090%=      5-min Rain = 0
KBO1 112242Z 34012KT 03/02 A2992 RMK A01 T00330018  RH  090%=      5-min Rain = 0
KBO1 112243Z 34012KT 03/02 A2992 RMK A01 T00330018  RH  090%=      5-min Rain = 0
KBO1 112244Z 33012KT 03/02 A2992 RMK A01 T00330019  RH  090%=      5-min Rain = 0
KBO1 112245Z 33013KT 03/02 A2992 RMK A01 T00330019  RH  090%=      5-min Rain = 0
KBO1 112246Z 33012KT 03/02 A2992 RMK A01 T00330019  RH  090%=      5-min Rain = 0
KBO1 112247Z 33012KT 03/02 A2992 RMK A01 T00330019  RH  090%=      5-min Rain = 0
KBO1 112248Z 33013KT 03/02 A2992 RMK A01 T00330019  RH  091%=      5-min Rain = 0
KBO1 112249Z 33014KT 03/02 A2991 RMK A01 T00330019  RH  090%=      5-min Rain = 0
KBO1 112250Z 33015KT 03/02 A2991 RMK A01 T00330017  RH  089%=      5-min Rain = 0
KBO1 112251Z 34017KT 03/02 A2991 RMK A01 T00330016  RH  089%=      5-min Rain = 0
KBO1 112252Z 33015KT 03/02 A2992 RMK A01 T00320015  RH  089%=      5-min Rain = 0
KBO1 112253Z 34015KT 03/02 A2991 RMK A01 T00310015  RH  089%=      5-min Rain = 0
KBO1 112254Z 33014KT 03/02 A2992 RMK A01 T00310015  RH  089%=      5-min Rain = 0
KBO1 112255Z 34014KT 03/02 A2992 RMK A01 T00310016  RH  090%=      5-min Rain = 0
KBO1 112256Z 33015KT 03/02 A2992 RMK A01 T00310016  RH  090%=      5-min Rain = 0
KBO1 112257Z 33014KT 03/02 A2992 RMK A01 T00300015  RH  090%=      5-min Rain = 0
KBO1 112258Z 33015KT 03/02 A2992 RMK A01 T00300016  RH  090%=      5-min Rain = 0
KBO1 112259Z 33014KT 03/02 A2992 RMK A01 T00300016  RH  091%=      5-min Rain = 0
KBO1 112300Z 33013KT 03/02 A2992 RMK A01 T00300017  RH  091%=      5-min Rain = 0
KBO1 112301Z 33013KT 03/02 A2992 RMK A01 T00300018  RH  091%=      5-min Rain = 0
KBO1 112302Z 33014KT 03/02 A2992 RMK A01 T00300017  RH  091%=      5-min Rain = 0
KBO1 112303Z 33012KT 03/02 A2992 RMK A01 T00300018  RH  092%=      5-min Rain = 0
KBO1 112304Z 33012KT 03/02 A2992 RMK A01 T00310019  RH  092%=      5-min Rain = 0
KBO1 112305Z 33011KT 03/02 A2992 RMK A01 T00310019  RH  092%=      5-min Rain = 0
KBO1 112306Z 33009KT 03/02 A2992 RMK A01 T00310020  RH  093%=      5-min Rain = 0
KBO1 112307Z 33011KT 03/02 A2992 RMK A01 T00310021  RH  093%=      5-min Rain = 0
KBO1 112308Z 33013KT 03/02 A2992 RMK A01 T00310021  RH  093%=      5-min Rain = 0
KBO1 112309Z 33012KT 03/02 A2992 RMK A01 T00310021  RH  093%=      5-min Rain = 0
KBO1 112310Z 33014KT 03/02 A2992 RMK A01 T00310020  RH  093%=      5-min Rain = 0
KBO1 112311Z 33011KT 03/02 A2992 RMK A01 T00300019  RH  092%=      5-min Rain = 0
KBO1 112312Z 33011KT 03/02 A2992 RMK A01 T00300019  RH  092%=      5-min Rain = 0
KBO1 112313Z 33011KT 03/02 A2992 RMK A01 T00300020  RH  093%=      5-min Rain = 0
KBO1 112314Z 33009KT 03/02 A2992 RMK A01 T00300020  RH  093%=      5-min Rain = 0
KBO1 112315Z 33007KT 03/02 A2992 RMK A01 T00300021  RH  093%=      5-min Rain = 0
KBO1 112316Z 34009KT 03/02 A2992 RMK A01 T00300021  RH  094%=      5-min Rain = 0
KBO1 112317Z 33012KT 03/02 A2992 RMK A01 T00300021  RH  094%=      5-min Rain = 0
KBO1 112318Z 33011KT 03/02 A2992 RMK A01 T00290020  RH  094%=      5-min Rain = 0
KBO1 112319Z 33010KT 03/02 A2992 RMK A01 T00290020  RH  094%=      5-min Rain = 0
KBO1 112320Z 33011KT 03/02 A2992 RMK A01 T00290019  RH  094%=      5-min Rain = 0
KBO1 112321Z 33009KT 03/02 A2992 RMK A01 T00290019  RH  094%=      5-min Rain = 0
KBO1 112322Z 32010KT 03/02 A2993 RMK A01 T00290020  RH  094%=      5-min Rain = 0
KBO1 112323Z 33010KT 03/02 A2992 RMK A01 T00290020  RH  094%=      5-min Rain = 0
KBO1 112324Z 33011KT 03/02 A2993 RMK A01 T00290020  RH  094%=      5-min Rain = 0
KBO1 112325Z 32011KT 03/02 A2993 RMK A01 T00290020  RH  094%=      5-min Rain = 0
KBO1 112326Z 33013KT 03/02 A2993 RMK A01 T00290020  RH  094%=      5-min Rain = 0
KBO1 112327Z 33013KT 03/02 A2993 RMK A01 T00280019  RH  093%=      5-min Rain = 0
KBO1 112328Z 33010KT 03/02 A2993 RMK A01 T00290018  RH  093%=      5-min Rain = 0
KBO1 112329Z 33009KT 03/02 A2993 RMK A01 T00280018  RH  093%=      5-min Rain = 0
KBO1 112330Z 32010KT 03/02 A2993 RMK A01 T00280019  RH  093%=      5-min Rain = 0
KBO1 112331Z 32010KT 03/02 A2993 RMK A01 T00280019  RH  094%=      5-min Rain = 0
KBO1 112332Z 32010KT 03/02 A2993 RMK A01 T00280019  RH  094%=      5-min Rain = 0
KBO1 112333Z 32010KT 03/02 A2993 RMK A01 T00280019  RH  094%=      5-min Rain = 0
KBO1 112334Z 32010KT 03/02 A2993 RMK A01 T00290020  RH  094%=      5-min Rain = 0
KBO1 112335Z 32010KT 03/02 A2993 RMK A01 T00280019  RH  094%=      5-min Rain = 0
KBO1 112336Z 33011KT 03/02 A2993 RMK A01 T00280019  RH  094%=      5-min Rain = 0
KBO1 112337Z 32009KT 03/02 A2993 RMK A01 T00280019  RH  094%=      5-min Rain = 0
KBO1 112338Z 33012KT 03/02 A2993 RMK A01 T00280018  RH  093%=      5-min Rain = 0
KBO1 112339Z 32010KT 03/02 A2993 RMK A01 T00280018  RH  093%=      5-min Rain = 0
KBO1 112340Z 32012KT 03/02 A2993 RMK A01 T00280018  RH  093%=      5-min Rain = 0
KBO1 112341Z 33010KT 03/02 A2993 RMK A01 T00270017  RH  093%=      5-min Rain = 0
KBO1 112342Z 33010KT 03/02 A2993 RMK A01 T00270017  RH  093%=      5-min Rain = 0
KBO1 112343Z 33011KT 03/02 A2993 RMK A01 T00270017  RH  093%=      5-min Rain = 0
KBO1 112344Z 33011KT 03/02 A2993 RMK A01 T00270017  RH  093%=      5-min Rain = 0
KBO1 112345Z 33012KT 03/02 A2993 RMK A01 T00260016  RH  093%=      5-min Rain = 0
KBO1 112346Z 33012KT 03/02 A2993 RMK A01 T00260016  RH  093%=      5-min Rain = 0
KBO1 112347Z 32012KT 03/02 A2993 RMK A01 T00260015  RH  093%=      5-min Rain = 0
KBO1 112348Z 32013KT 03/02 A2993 RMK A01 T00260015  RH  093%=      5-min Rain = 0
KBO1 112349Z 33011KT 03/01 A2993 RMK A01 T00250014  RH  092%=      5-min Rain = 0
KBO1 112350Z 32012KT 03/01 A2993 RMK A01 T00250014  RH  092%=      5-min Rain = 0
KBO1 112351Z 33010KT 03/01 A2993 RMK A01 T00250014  RH  092%=      5-min Rain = 0
KBO1 112352Z 32011KT 03/01 A2993 RMK A01 T00250014  RH  092%=      5-min Rain = 0
KBO1 112353Z 32010KT 02/01 A2993 RMK A01 T00240014  RH  093%=      5-min Rain = 0
KBO1 112354Z 32012KT 02/01 A2993 RMK A01 T00240014  RH  093%=      5-min Rain = 0
KBO1 112355Z 32011KT 02/01 A2993 RMK A01 T00240014  RH  093%=      5-min Rain = 0
KBO1 112356Z 32011KT 02/01 A2993 RMK A01 T00240014  RH  093%=      5-min Rain = 0
KBO1 112357Z 32012KT 02/01 A2993 RMK A01 T00240014  RH  093%=      5-min Rain = 0
KBO1 112358Z 32011KT 02/01 A2993 RMK A01 T00240014  RH  093%=      5-min Rain = 0
KBO1 112359Z 32012KT 03/01 A2994 RMK A01 T00250014  RH  093%=      5-min Rain = 0
KBO1 120000Z 33010KT 03/01 A2994 RMK A01 T00250014  RH  093%=      5-min Rain = 0
KBO1 120001Z 32011KT 03/01 A2994 RMK A01 T00250014  RH  093%=      5-min Rain = 0
KBO1 120002Z 32010KT 03/01 A2994 RMK A01 T00250014  RH  093%=      5-min Rain = 0
KBO1 120003Z 32009KT 03/02 A2994 RMK A01 T00250015  RH  093%=      5-min Rain = 0
KBO1 120004Z 32010KT 03/02 A2994 RMK A01 T00250015  RH  093%=      5-min Rain = 0
KBO1 120005Z 32009KT 03/02 A2994 RMK A01 T00250016  RH  093%=      5-min Rain = 0
KBO1 120006Z 32010KT 03/02 A2994 RMK A01 T00260016  RH  093%=      5-min Rain = 0
KBO1 120007Z 32010KT 03/02 A2994 RMK A01 T00250016  RH  093%=      5-min Rain = 0
KBO1 120008Z 32009KT 03/02 A2994 RMK A01 T00260016  RH  093%=      5-min Rain = 0
KBO1 120009Z 32008KT 03/02 A2994 RMK A01 T00260016  RH  093%=      5-min Rain = 0
KBO1 120010Z 32009KT 03/02 A2994 RMK A01 T00260016  RH  093%=      5-min Rain = 0
KBO1 120011Z 32009KT 03/02 A2994 RMK A01 T00260017  RH  094%=      5-min Rain = 0
KBO1 120012Z 32010KT 03/02 A2994 RMK A01 T00260017  RH  094%=      5-min Rain = 0
KBO1 120013Z 32009KT 03/02 A2994 RMK A01 T00260018  RH  094%=      5-min Rain = 0
KBO1 120014Z 32010KT 03/02 A2994 RMK A01 T00270018  RH  094%=      5-min Rain = 0
KBO1 120015Z 32008KT 03/02 A2994 RMK A01 T00270018  RH  094%=      5-min Rain = 0
KBO1 120016Z 33011KT 03/02 A2994 RMK A01 T00270019  RH  094%=      5-min Rain = 0
KBO1 120017Z 33008KT 03/02 A2994 RMK A01 T00270019  RH  095%=      5-min Rain = 0
KBO1 120018Z 33008KT 03/02 A2994 RMK A01 T00270020  RH  095%=      5-min Rain = 0
KBO1 120019Z 32009KT 03/02 A2994 RMK A01 T00270020  RH  095%=      5-min Rain = 0
KBO1 120020Z 32012KT 03/02 A2994 RMK A01 T00270020  RH  095%=      5-min Rain = 0
KBO1 120021Z 32013KT 03/02 A2994 RMK A01 T00270020  RH  095%=      5-min Rain = 0
KBO1 120022Z 33011KT 03/02 A2995 RMK A01 T00270019  RH  095%=      5-min Rain = 0
KBO1 120023Z 33011KT 03/02 A2995 RMK A01 T00270019  RH  095%=      5-min Rain = 0
KBO1 120024Z 33011KT 03/02 A2995 RMK A01 T00270019  RH  095%=      5-min Rain = 0
KBO1 120025Z 33012KT 03/02 A2995 RMK A01 T00270019  RH  095%=      5-min Rain = 0
KBO1 120026Z 33011KT 03/02 A2995 RMK A01 T00270019  RH  094%=      5-min Rain = 0
KBO1 120027Z 33013KT 03/02 A2995 RMK A01 T00270019  RH  094%=      5-min Rain = 0
KBO1 120028Z 33014KT 03/02 A2995 RMK A01 T00270019  RH  094%=      5-min Rain = 0
KBO1 120029Z 33013KT 03/02 A2995 RMK A01 T00270019  RH  094%=      5-min Rain = 0
KBO1 120030Z 33012KT 03/02 A2995 RMK A01 T00270018  RH  094%=      5-min Rain = 0
KBO1 120031Z 33013KT 03/02 A2995 RMK A01 T00270018  RH  094%=      5-min Rain = 0
KBO1 120032Z 33011KT 03/02 A2995 RMK A01 T00260017  RH  094%=      5-min Rain = 0
KBO1 120033Z 33011KT 03/02 A2995 RMK A01 T00260017  RH  094%=      5-min Rain = 0
KBO1 120034Z 33011KT 03/02 A2995 RMK A01 T00260017  RH  094%=      5-min Rain = 0
KBO1 120035Z 33013KT 03/02 A2995 RMK A01 T00260017  RH  094%=      5-min Rain = 0
KBO1 120036Z 33012KT 03/02 A2995 RMK A01 T00260017  RH  094%=      5-min Rain = 0
KBO1 120037Z 33012KT 03/02 A2995 RMK A01 T00260017  RH  094%=      5-min Rain = 0
KBO1 120038Z 34015KT 03/02 A2995 RMK A01 T00250016  RH  094%=      5-min Rain = 0
KBO1 120039Z 33013KT 03/02 A2995 RMK A01 T00250016  RH  093%=      5-min Rain = 0
KBO1 120040Z 33014KT 03/02 A2995 RMK A01 T00250015  RH  093%=      5-min Rain = 0
KBO1 120041Z 35012KT 03/02 A2996 RMK A01 T00250015  RH  093%=      5-min Rain = 0
KBO1 120042Z 34012KT 03/01 A2996 RMK A01 T00250014  RH  093%=      5-min Rain = 0
KBO1 120043Z 34012KT 02/01 A2996 RMK A01 T00240014  RH  093%=      5-min Rain = 0
KBO1 120044Z 34012KT 02/01 A2996 RMK A01 T00240014  RH  093%=      5-min Rain = 0
KBO1 120045Z 34012G17KT 02/02 A2996 RMK A01 T00240015  RH  093%=      5-min Rain = 0
KBO1 120046Z 34013KT 02/02 A2996 RMK A01 T00240015  RH  094%=      5-min Rain = 0
KBO1 120047Z 34014KT 02/02 A2996 RMK A01 T00240015  RH  094%=      5-min Rain = 0
KBO1 120048Z 34015KT 02/02 A2996 RMK A01 T00240015  RH  094%=      5-min Rain = 0
KBO1 120049Z 34013KT 02/02 A2996 RMK A01 T00240015  RH  094%=      5-min Rain = 0
KBO1 120050Z 33012KT 02/02 A2996 RMK A01 T00240015  RH  094%=      5-min Rain = 0
KBO1 120051Z 34013G19KT 02/02 A2996 RMK A01 T00240016  RH  094%=      5-min Rain = 0
KBO1 120052Z 33016KT 02/02 A2996 RMK A01 T00240016  RH  095%=      5-min Rain = 0
KBO1 120053Z 34014KT 02/02 A2996 RMK A01 T00230016  RH  095%=      5-min Rain = 0
KBO1 120054Z 34014KT 02/02 A2996 RMK A01 T00230015  RH  095%=      5-min Rain = 0
KBO1 120055Z 34017KT 02/02 A2996 RMK A01 T00230015  RH  094%=      5-min Rain = 0
KBO1 120056Z 34018KT 02/01 A2996 RMK A01 T00230014  RH  094%=      5-min Rain = 0
KBO1 120057Z 35018KT 02/01 A2996 RMK A01 T00220013  RH  094%=      5-min Rain = 0
KBO1 120058Z 35016KT 02/01 A2996 RMK A01 T00220013  RH  094%=      5-min Rain = 0
KBO1 120059Z 35014G19KT 02/01 A2996 RMK A01 T00220012  RH  093%=      5-min Rain = 0
KBO1 120100Z 35017KT 02/01 A2996 RMK A01 T00210012  RH  094%=      5-min Rain = 0
KBO1 120101Z 35017KT 02/01 A2996 RMK A01 T00210011  RH  093%=      5-min Rain = 0
KBO1 120102Z 35018KT 02/01 A2996 RMK A01 T00200010  RH  093%=      5-min Rain = 0
KBO1 120103Z 35016KT 02/01 A2996 RMK A01 T00200010  RH  093%=      5-min Rain = 0
KBO1 120104Z 35013KT 02/01 A2996 RMK A01 T00200010  RH  094%=      5-min Rain = 0
KBO1 120105Z 35015KT 02/01 A2996 RMK A01 T00200011  RH  094%=      5-min Rain = 0
KBO1 120106Z 35014KT 02/01 A2996 RMK A01 T00190011  RH  094%=      5-min Rain = 0
KBO1 120107Z 36013KT 02/01 A2996 RMK A01 T00190011  RH  094%=      5-min Rain = 0
KBO1 120108Z 35015KT 02/01 A2996 RMK A01 T00190011  RH  095%=      5-min Rain = 0
KBO1 120109Z 35015KT 02/01 A2996 RMK A01 T00190011  RH  095%=      5-min Rain = 0
KBO1 120110Z 35016KT 02/01 A2996 RMK A01 T00180011  RH  095%=      5-min Rain = 0
KBO1 120111Z 35013KT 02/01 A2996 RMK A01 T00180011  RH  095%=      5-min Rain = 0
KBO1 120112Z 35014KT 02/01 A2996 RMK A01 T00180011  RH  095%=      5-min Rain = 0
KBO1 120113Z 35012KT 02/01 A2996 RMK A01 T00180011  RH  096%=      5-min Rain = 0
KBO1 120114Z 35013KT 02/01 A2996 RMK A01 T00170011  RH  096%=      5-min Rain = 0
KBO1 120115Z 35013KT 02/01 A2996 RMK A01 T00170011  RH  096%=      5-min Rain = 0
KBO1 120116Z 35014KT 02/01 A2996 RMK A01 T00170012  RH  096%=      5-min Rain = 0
KBO1 120117Z 35014KT 02/01 A2997 RMK A01 T00170012  RH  096%=      5-min Rain = 0
KBO1 120118Z 35013KT 02/01 A2997 RMK A01 T00170012  RH  096%=      5-min Rain = 0
KBO1 120119Z 35013KT 02/01 A2997 RMK A01 T00170012  RH  097%=      5-min Rain = 0
KBO1 120120Z 34012KT 02/01 A2997 RMK A01 T00170012  RH  097%=      5-min Rain = 0
KBO1 120121Z 35011KT 02/01 A2997 RMK A01 T00170012  RH  097%=      5-min Rain = 0
KBO1 120122Z 35011KT 02/01 A2997 RMK A01 T00170012  RH  097%=      5-min Rain = 0
KBO1 120123Z 35012KT 02/01 A2997 RMK A01 T00160012  RH  097%=      5-min Rain = 0
KBO1 120124Z 35013KT 02/01 A2997 RMK A01 T00160012  RH  097%=      5-min Rain = 0
KBO1 120125Z 35010KT 02/01 A2997 RMK A01 T00160012  RH  097%=      5-min Rain = 0
KBO1 120126Z 35013KT 02/01 A2997 RMK A01 T00170013  RH  097%=      5-min Rain = 0
KBO1 120127Z 35013KT 02/01 A2997 RMK A01 T00160013  RH  097%=      5-min Rain = 0
KBO1 120128Z 35013KT 02/01 A2997 RMK A01 T00170013  RH  097%=      5-min Rain = 0
KBO1 120129Z 35013KT 02/01 A2997 RMK A01 T00170013  RH  097%=      5-min Rain = 0
KBO1 120130Z 35016KT 02/01 A2997 RMK A01 T00160012  RH  097%=      5-min Rain = 0
KBO1 120131Z 35014KT 02/01 A2997 RMK A01 T00160012  RH  097%=      5-min Rain = 0
KBO1 120132Z 35013KT 02/01 A2997 RMK A01 T00160012  RH  097%=      5-min Rain = 0
KBO1 120133Z 35013KT 02/01 A2997 RMK A01 T00160012  RH  097%=      5-min Rain = 0
KBO1 120134Z 35013KT 02/01 A2997 RMK A01 T00160011  RH  097%=      5-min Rain = 0
KBO1 120135Z 35014KT 02/01 A2997 RMK A01 T00160011  RH  097%=      5-min Rain = 0
KBO1 120136Z 35014KT 02/01 A2997 RMK A01 T00160011  RH  097%=      5-min Rain = 0
KBO1 120137Z 35014KT 02/01 A2997 RMK A01 T00150010  RH  097%=      5-min Rain = 0
KBO1 120138Z 35014KT 02/01 A2997 RMK A01 T00160010  RH  097%=      5-min Rain = 0
KBO1 120139Z 35012KT 02/01 A2997 RMK A01 T00150010  RH  097%=      5-min Rain = 0
KBO1 120140Z 35015KT 02/01 A2997 RMK A01 T00150010  RH  096%=      5-min Rain = 0
KBO1 120141Z 35013KT 02/01 A2997 RMK A01 T00150010  RH  097%=      5-min Rain = 0
KBO1 120142Z 35013KT 02/01 A2997 RMK A01 T00150010  RH  097%=      5-min Rain = 0
KBO1 120143Z 35013KT 02/01 A2997 RMK A01 T00150010  RH  097%=      5-min Rain = 0
KBO1 120144Z 35014KT 01/01 A2997 RMK A01 T00140009  RH  097%=      5-min Rain = 0
KBO1 120145Z 35012KT 01/01 A2997 RMK A01 T00140009  RH  097%=      5-min Rain = 0
KBO1 120146Z 34013KT 01/01 A2997 RMK A01 T00140009  RH  097%=      5-min Rain = 0
KBO1 120147Z 34012KT 01/01 A2997 RMK A01 T00140009  RH  097%=      5-min Rain = 0
KBO1 120148Z 34013KT 01/01 A2997 RMK A01 T00130009  RH  097%=      5-min Rain = 0
KBO1 120149Z 34013KT 01/01 A2997 RMK A01 T00130008  RH  097%=      5-min Rain = 0
KBO1 120150Z 35014KT 01/01 A2997 RMK A01 T00130008  RH  097%=      5-min Rain = 0
KBO1 120151Z 35011KT 01/01 A2998 RMK A01 T00130008  RH  097%=      5-min Rain = 0
KBO1 120152Z 34014KT 01/01 A2998 RMK A01 T00120008  RH  097%=      5-min Rain = 0
KBO1 120153Z 34012KT 01/01 A2998 RMK A01 T00120008  RH  097%=      5-min Rain = 0
KBO1 120154Z 34011KT 01/01 A2998 RMK A01 T00120008  RH  097%=      5-min Rain = 0
KBO1 120155Z 34012KT 01/01 A2998 RMK A01 T00120008  RH  097%=      5-min Rain = 0
KBO1 120156Z 35012KT 01/01 A2998 RMK A01 T00120007  RH  097%=      5-min Rain = 0
KBO1 120157Z 34013KT 01/01 A2998 RMK A01 T00120007  RH  097%=      5-min Rain = 0
KBO1 120158Z 34012KT 01/01 A2998 RMK A01 T00120008  RH  097%=      5-min Rain = 0
KBO1 120159Z 35012KT 01/01 A2998 RMK A01 T00120008  RH  097%=      5-min Rain = 0
KBO1 120200Z 35012KT 01/01 A2998 RMK A01 T00110008  RH  097%=      5-min Rain = 0
KBO1 120201Z 35011KT 01/01 A2998 RMK A01 T00110008  RH  098%=      5-min Rain = 0
KBO1 120202Z 35011KT 01/01 A2998 RMK A01 T00110008  RH  098%=      5-min Rain = 0
KBO1 120203Z 35012KT 01/01 A2998 RMK A01 T00110008  RH  098%=      5-min Rain = 0
KBO1 120204Z 35011KT 01/01 A2998 RMK A01 T00110008  RH  098%=      5-min Rain = 0
KBO1 120205Z 35011KT 01/01 A2998 RMK A01 T00110008  RH  098%=      5-min Rain = 0
KBO1 120206Z 35010KT 01/01 A2998 RMK A01 T00110008  RH  098%=      5-min Rain = 0
KBO1 120207Z 35011KT 01/01 A2998 RMK A01 T00110008  RH  098%=      5-min Rain = 0
KBO1 120208Z 35011KT 01/01 A2998 RMK A01 T00110009  RH  098%=      5-min Rain = 0
KBO1 120209Z 35010KT 01/01 A2998 RMK A01 T00110009  RH  098%=      5-min Rain = 0
KBO1 120210Z 35010KT 01/01 A2998 RMK A01 T00110009  RH  098%=      5-min Rain = 0
KBO1 120211Z 35010KT 01/01 A2998 RMK A01 T00110009  RH  099%=      5-min Rain = 0
KBO1 120212Z 35010KT 01/01 A2998 RMK A01 T00110009  RH  099%=      5-min Rain = 0
KBO1 120213Z 35010KT 01/01 A2998 RMK A01 T00110009  RH  099%=      5-min Rain = 0
KBO1 120214Z 35010KT 01/01 A2998 RMK A01 T00110010  RH  099%=      5-min Rain = 0
KBO1 120215Z 35010KT 01/01 A2998 RMK A01 T00120011  RH  099%=      5-min Rain = 0
KBO1 120216Z 34009KT 01/01 A2998 RMK A01 T00120011  RH  099%=      5-min Rain = 0
KBO1 120217Z 35010KT 01/01 A2998 RMK A01 T00120011  RH  099%=      5-min Rain = 0
KBO1 120218Z 34012KT 01/01 A2998 RMK A01 T00120011  RH  099%=      5-min Rain = 0
KBO1 120219Z 35012KT 01/01 A2998 RMK A01 T00120011  RH  099%=      5-min Rain = 0
KBO1 120220Z 35010KT 01/01 A2998 RMK A01 T00130012  RH  099%=      5-min Rain = 0
KBO1 120221Z 34011KT 01/01 A2998 RMK A01 T00130012  RH  100%=      5-min Rain = 0
KBO1 120222Z 34012KT 01/01 A2998 RMK A01 T00130012  RH  100%=      5-min Rain = 0
KBO1 120223Z 34013KT 01/01 A2998 RMK A01 T00130012  RH  100%=      5-min Rain = 0
KBO1 120224Z 34012KT 01/01 A2998 RMK A01 T00130012  RH  099%=      5-min Rain = 0
KBO1 120225Z 34011KT 01/01 A2998 RMK A01 T00130012  RH  099%=      5-min Rain = 0
KBO1 120226Z 34011KT 01/01 A2998 RMK A01 T00130012  RH  099%=      5-min Rain = 0
KBO1 120227Z 34011KT 01/01 A2999 RMK A01 T00130012  RH  099%=      5-min Rain = 0
KBO1 120228Z 34012KT 01/01 A2998 RMK A01 T00130011  RH  099%=      5-min Rain = 0
KBO1 120229Z 34012KT 01/01 A2998 RMK A01 T00120011  RH  099%=      5-min Rain = 0
KBO1 120230Z 34009KT 01/01 A2999 RMK A01 T00120010  RH  099%=      5-min Rain = 0
KBO1 120231Z 33009KT 01/01 A2999 RMK A01 T00120010  RH  099%=      5-min Rain = 0
KBO1 120232Z 33011KT 01/01 A2999 RMK A01 T00120010  RH  099%=      5-min Rain = 0
KBO1 120233Z 33010KT 01/01 A2999 RMK A01 T00120010  RH  099%=      5-min Rain = 0
KBO1 120234Z 33009KT 01/01 A2999 RMK A01 T00120010  RH  098%=      5-min Rain = 0
KBO1 120235Z 33009KT 01/01 A2999 RMK A01 T00120010  RH  098%=      5-min Rain = 0
KBO1 120236Z 33009KT 01/01 A2999 RMK A01 T00120010  RH  098%=      5-min Rain = 0
KBO1 120237Z 33009KT 01/01 A2999 RMK A01 T00120010  RH  098%=      5-min Rain = 0
KBO1 120238Z 34008KT 01/01 A2999 RMK A01 T00120010  RH  098%=      5-min Rain = 0
KBO1 120239Z 33011KT 01/01 A2999 RMK A01 T00120010  RH  098%=      5-min Rain = 0
KBO1 120240Z 34009KT 01/01 A2999 RMK A01 T00110009  RH  098%=      5-min Rain = 0
KBO1 120241Z 33010KT 01/01 A2999 RMK A01 T00110009  RH  098%=      5-min Rain = 0
KBO1 120242Z 33010KT 01/01 A2999 RMK A01 T00110009  RH  098%=      5-min Rain = 0
KBO1 120243Z 33009KT 01/01 A2999 RMK A01 T00120009  RH  099%=      5-min Rain = 0
KBO1 120244Z 33010KT 01/01 A2999 RMK A01 T00110009  RH  099%=      5-min Rain = 0
KBO1 120245Z 33011KT 01/01 A2999 RMK A01 T00110009  RH  099%=      5-min Rain = 0
KBO1 120246Z 33010KT 01/01 A2999 RMK A01 T00120010  RH  099%=      5-min Rain = 0
KBO1 120247Z 32009KT 01/01 A2999 RMK A01 T00120010  RH  099%=      5-min Rain = 0
KBO1 120248Z 32010KT 01/01 A2999 RMK A01 T00120010  RH  099%=      5-min Rain = 0
KBO1 120249Z 33009KT 01/01 A2999 RMK A01 T00120010  RH  099%=      5-min Rain = 0
KBO1 120250Z 32010KT 01/01 A2999 RMK A01 T00120010  RH  099%=      5-min Rain = 0
KBO1 120251Z 32010KT 01/01 A2999 RMK A01 T00120010  RH  099%=      5-min Rain = 0
KBO1 120252Z 32011KT 01/01 A2999 RMK A01 T00120011  RH  099%=      5-min Rain = 0
KBO1 120253Z 32010KT 01/01 A2999 RMK A01 T00120011  RH  099%=      5-min Rain = 0
KBO1 120254Z 32010KT 01/01 A2999 RMK A01 T00120011  RH  099%=      5-min Rain = 0
KBO1 120255Z 33011KT 01/01 A2999 RMK A01 T00120011  RH  099%=      5-min Rain = 0
KBO1 120256Z 32009KT 01/01 A2999 RMK A01 T00120011  RH  100%=      5-min Rain = 0
KBO1 120257Z 32008KT 01/01 A2999 RMK A01 T00120012  RH  100%=      5-min Rain = 0
KBO1 120258Z 32009KT 01/01 A2999 RMK A01 T00120012  RH  100%=      5-min Rain = 0
KBO1 120259Z 32010KT 01/01 A2999 RMK A01 T00130013  RH  100%=      5-min Rain = 0
KBO1 120300Z 32012KT 01/01 A2999 RMK A01 T00130013  RH  100%=      5-min Rain = 0
KBO1 120301Z 32010KT 01/01 A2999 RMK A01 T00130013  RH  100%=      5-min Rain = 0
KBO1 120302Z 32012KT 01/01 A2999 RMK A01 T00130013  RH  100%=      5-min Rain = 0
KBO1 120303Z 32009KT 01/01 A2999 RMK A01 T00130013  RH  100%=      5-min Rain = 0
KBO1 120304Z 32009KT 01/01 A2999 RMK A01 T00140014  RH  100%=      5-min Rain = 0
KBO1 120305Z 32011KT 01/01 A2999 RMK A01 T00140014  RH  100%=      5-min Rain = 0.01
KBO1 120306Z 32011KT 01/01 A2999 RMK A01 T00140014  RH  100%=      5-min Rain = 0
KBO1 120307Z 32012KT 01/01 A2999 RMK A01 T00140014  RH  100%=      5-min Rain = 0
KBO1 120308Z 32013KT 01/01 A2999 RMK A01 T00140014  RH  100%=      5-min Rain = 0
KBO1 120309Z 32014KT 02/02 A2999 RMK A01 T00150015  RH  100%=      5-min Rain = 0
KBO1 120310Z 32014KT 02/02 A2998 RMK A01 T00150015  RH  100%=      5-min Rain = 0
KBO1 120311Z 32013G19KT 02/02 A2998 RMK A01 T00150015  RH  100%=      5-min Rain = 0
KBO1 120312Z 32014KT 02/02 A2999 RMK A01 T00150015  RH  100%=      5-min Rain = 0
KBO1 120313Z 32016KT 02/02 A2998 RMK A01 T00150015  RH  100%=      5-min Rain = 0
KBO1 120314Z 32015G20KT 02/02 A2999 RMK A01 T00150015  RH  100%=      5-min Rain = 0
KBO1 120315Z 32015KT 02/02 A2999 RMK A01 T00150015  RH  100%=      5-min Rain = 0
KBO1 120316Z 32014KT 02/02 A2999 RMK A01 T00150015  RH  100%=      5-min Rain = 0
KBO1 120317Z 32015KT 02/02 A2999 RMK A01 T00150015  RH  100%=      5-min Rain = 0
KBO1 120318Z 33017KT 02/02 A2999 RMK A01 T00150015  RH  100%=      5-min Rain = 0
KBO1 120319Z 33015G20KT 02/02 A2999 RMK A01 T00150015  RH  100%=      5-min Rain = 0
KBO1 120320Z 33016KT 02/02 A2999 RMK A01 T00150015  RH  100%=      5-min Rain = 0
KBO1 120321Z 32017KT 02/02 A2999 RMK A01 T00150015  RH  100%=      5-min Rain = 0
KBO1 120322Z 32015G20KT 02/02 A2999 RMK A01 T00160016  RH  100%=      5-min Rain = 0
KBO1 120323Z 32015KT 02/02 A2999 RMK A01 T00160016  RH  100%=      5-min Rain = 0
KBO1 120324Z 32017KT 02/02 A2999 RMK A01 T00160016  RH  100%=      5-min Rain = 0
KBO1 120325Z 32016KT 02/02 A2999 RMK A01 T00160016  RH  100%=      5-min Rain = 0
KBO1 120326Z 32016KT 02/02 A2999 RMK A01 T00160015  RH  100%=      5-min Rain = 0
KBO1 120327Z 32017KT 02/02 A2999 RMK A01 T00160015  RH  100%=      5-min Rain = 0
KBO1 120328Z 32017KT 02/02 A2999 RMK A01 T00160016  RH  100%=      5-min Rain = 0
KBO1 120329Z 32018KT 02/02 A2999 RMK A01 T00160016  RH  100%=      5-min Rain = 0
KBO1 120330Z 33017KT 02/02 A2999 RMK A01 T00160016  RH  100%=      5-min Rain = 0
KBO1 120331Z 32018KT 02/02 A2999 RMK A01 T00160016  RH  100%=      5-min Rain = 0
KBO1 120332Z 32020KT 02/02 A2999 RMK A01 T00160016  RH  100%=      5-min Rain = 0
KBO1 120333Z 32021KT 02/02 A2999 RMK A01 T00160016  RH  099%=      5-min Rain = 0
KBO1 120334Z 32021KT 02/02 A2999 RMK A01 T00160015  RH  099%=      5-min Rain = 0
KBO1 120335Z 32018KT 02/02 A2999 RMK A01 T00160015  RH  099%=      5-min Rain = 0
KBO1 120336Z 33021KT 02/01 A2999 RMK A01 T00160014  RH  099%=      5-min Rain = 0
KBO1 120337Z 32019KT 02/01 A2999 RMK A01 T00160014  RH  098%=      5-min Rain = 0
KBO1 120338Z 33018KT 02/01 A2999 RMK A01 T00160013  RH  098%=      5-min Rain = 0
KBO1 120339Z 33018KT 02/01 A2999 RMK A01 T00160012  RH  098%=      5-min Rain = 0
KBO1 120340Z 33019G25KT 02/01 A2999 RMK A01 T00150012  RH  097%=      5-min Rain = 0
KBO1 120341Z 32018KT 02/01 A2999 RMK A01 T00160012  RH  097%=      5-min Rain = 0
KBO1 120342Z 32019KT 02/01 A2999 RMK A01 T00160012  RH  097%=      5-min Rain = 0
KBO1 120343Z 32018G23KT 02/01 A2999 RMK A01 T00160011  RH  097%=      5-min Rain = 0
KBO1 120344Z 32016KT 02/01 A30 RMK A01 T00160011  RH  097%=      5-min Rain = 0
KBO1 120345Z 33019KT 02/01 A30 RMK A01 T00160012  RH  097%=      5-min Rain = 0
KBO1 120346Z 32018KT 02/01 A30 RMK A01 T00160012  RH  097%=      5-min Rain = 0
KBO1 120347Z 32016KT 02/01 A30 RMK A01 T00160011  RH  097%=      5-min Rain = 0
KBO1 120348Z 33017KT 02/01 A30 RMK A01 T00160012  RH  097%=      5-min Rain = 0
KBO1 120349Z 32018KT 02/01 A30 RMK A01 T00160011  RH  097%=      5-min Rain = 0
KBO1 120350Z 32017KT 02/01 A30 RMK A01 T00160011  RH  097%=      5-min Rain = 0.01
KBO1 120351Z 32018KT 02/01 A30 RMK A01 T00160011  RH  097%=      5-min Rain = 0
KBO1 120352Z 32019KT 02/01 A30 RMK A01 T00160011  RH  096%=      5-min Rain = 0
KBO1 120353Z 32018KT 02/01 A30 RMK A01 T00160011  RH  096%=      5-min Rain = 0
KBO1 120354Z 32017KT 02/01 A30 RMK A01 T00160011  RH  096%=      5-min Rain = 0
KBO1 120355Z 32017KT 02/01 A30 RMK A01 T00160011  RH  096%=      5-min Rain = 0
KBO1 120356Z 32015KT 02/01 A30 RMK A01 T00160011  RH  096%=      5-min Rain = 0
KBO1 120357Z 32013KT 02/01 A30 RMK A01 T00170011  RH  096%=      5-min Rain = 0
KBO1 120358Z 31017KT 02/01 A30 RMK A01 T00170011  RH  096%=      5-min Rain = 0
KBO1 120359Z 31015KT 02/01 A30 RMK A01 T00160011  RH  096%=      5-min Rain = 0
KBO1 120400Z 31019KT 02/01 A30 RMK A01 T00170011  RH  096%=      5-min Rain = 0
KBO1 120401Z 32015G20KT 02/01 A30 RMK A01 T00160011  RH  096%=      5-min Rain = 0
KBO1 120402Z 32015KT 02/01 A30 RMK A01 T00160011  RH  096%=      5-min Rain = 0
KBO1 120403Z 32016KT 02/01 A30 RMK A01 T00160011  RH  096%=      5-min Rain = 0
KBO1 120404Z 32015KT 02/01 A30 RMK A01 T00160011  RH  096%=      5-min Rain = 0
KBO1 120405Z 32015KT 02/01 A30 RMK A01 T00160010  RH  096%=      5-min Rain = 0
KBO1 120406Z 32017KT 02/01 A30 RMK A01 T00160010  RH  096%=      5-min Rain = 0
KBO1 120407Z 32015KT 02/01 A30 RMK A01 T00160010  RH  096%=      5-min Rain = 0
KBO1 120408Z 32014KT 02/01 A30 RMK A01 T00160010  RH  096%=      5-min Rain = 0
KBO1 120409Z 32015KT 02/01 A30 RMK A01 T00150010  RH  096%=      5-min Rain = 0
KBO1 120410Z 32016KT 02/01 A30 RMK A01 T00150011  RH  097%=      5-min Rain = 0
KBO1 120411Z 32014KT 02/01 A30 RMK A01 T00160011  RH  097%=      5-min Rain = 0
KBO1 120412Z 32013KT 02/01 A30 RMK A01 T00160011  RH  097%=      5-min Rain = 0
KBO1 120413Z 32016KT 02/01 A30 RMK A01 T00160012  RH  097%=      5-min Rain = 0
KBO1 120414Z 32015KT 02/01 A30 RMK A01 T00160012  RH  097%=      5-min Rain = 0
KBO1 120415Z 32015KT 02/01 A30 RMK A01 T00160012  RH  097%=      5-min Rain = 0
KBO1 120416Z 32015KT 02/01 A30 RMK A01 T00160013  RH  097%=      5-min Rain = 0
KBO1 120417Z 31014KT 02/01 A30 RMK A01 T00160013  RH  098%=      5-min Rain = 0
KBO1 120418Z 31016KT 02/01 A30 RMK A01 T00170013  RH  098%=      5-min Rain = 0
KBO1 120419Z 31016KT 02/01 A30 RMK A01 T00170013  RH  098%=      5-min Rain = 0
KBO1 120420Z 32017KT 02/01 A30 RMK A01 T00170013  RH  098%=      5-min Rain = 0
KBO1 120421Z 31017KT 02/01 A3001 RMK A01 T00160013  RH  098%=      5-min Rain = 0
KBO1 120422Z 31016KT 02/01 A30 RMK A01 T00160013  RH  098%=      5-min Rain = 0
KBO1 120423Z 31014KT 02/01 A3001 RMK A01 T00170013  RH  098%=      5-min Rain = 0
KBO1 120424Z 31015KT 02/01 A30 RMK A01 T00160013  RH  098%=      5-min Rain = 0
KBO1 120425Z 31016KT 02/01 A3001 RMK A01 T00170013  RH  098%=      5-min Rain = 0
KBO1 120426Z 31017G22KT 02/01 A3001 RMK A01 T00160013  RH  098%=      5-min Rain = 0
KBO1 120427Z 31017KT 02/01 A3001 RMK A01 T00170013  RH  098%=      5-min Rain = 0
KBO1 120428Z 31015KT 02/01 A3001 RMK A01 T00170013  RH  098%=      5-min Rain = 0
KBO1 120429Z 31016KT 02/01 A3001 RMK A01 T00170013  RH  097%=      5-min Rain = 0
KBO1 120430Z 31013KT 02/01 A3001 RMK A01 T00160012  RH  097%=      5-min Rain = 0
KBO1 120431Z 31017KT 02/01 A3001 RMK A01 T00160012  RH  097%=      5-min Rain = 0
KBO1 120432Z 31015KT 02/01 A3001 RMK A01 T00160012  RH  097%=      5-min Rain = 0
KBO1 120433Z 31016KT 02/01 A3001 RMK A01 T00160012  RH  097%=      5-min Rain = 0
KBO1 120434Z 31018KT 02/01 A3001 RMK A01 T00160012  RH  097%=      5-min Rain = 0
KBO1 120435Z 32017KT 02/01 A3001 RMK A01 T00160012  RH  097%=      5-min Rain = 0
KBO1 120436Z 31014KT 02/01 A3001 RMK A01 T00160012  RH  097%=      5-min Rain = 0
KBO1 120437Z 31013G18KT 02/01 A3001 RMK A01 T00160012  RH  097%=      5-min Rain = 0
KBO1 120438Z 31015KT 02/01 A3001 RMK A01 T00160012  RH  097%=      5-min Rain = 0
KBO1 120439Z 31016KT 02/01 A3001 RMK A01 T00160012  RH  097%=      5-min Rain = 0
KBO1 120440Z 31015KT 02/01 A3001 RMK A01 T00160012  RH  097%=      5-min Rain = 0
KBO1 120441Z 31015KT 02/01 A3001 RMK A01 T00160012  RH  097%=      5-min Rain = 0
KBO1 120442Z 31017KT 02/01 A3001 RMK A01 T00160012  RH  097%=      5-min Rain = 0
KBO1 120443Z 31014G19KT 02/01 A3001 RMK A01 T00160012  RH  097%=      5-min Rain = 0
KBO1 120444Z 31014KT 02/01 A3001 RMK A01 T00160012  RH  097%=      5-min Rain = 0
KBO1 120445Z 31014KT 02/01 A3001 RMK A01 T00160012  RH  097%=      5-min Rain = 0
KBO1 120446Z 32015KT 02/01 A3001 RMK A01 T00150012  RH  097%=      5-min Rain = 0
KBO1 120447Z 31017KT 02/01 A3001 RMK A01 T00160012  RH  098%=      5-min Rain = 0
KBO1 120448Z 31015KT 02/01 A3001 RMK A01 T00160012  RH  098%=      5-min Rain = 0
KBO1 120449Z 32015KT 02/01 A3001 RMK A01 T00150012  RH  098%=      5-min Rain = 0
KBO1 120450Z 32014KT 02/01 A3001 RMK A01 T00160012  RH  098%=      5-min Rain = 0
KBO1 120451Z 32013KT 02/01 A3001 RMK A01 T00160012  RH  098%=      5-min Rain = 0
KBO1 120452Z 31014KT 02/01 A3001 RMK A01 T00150012  RH  098%=      5-min Rain = 0
KBO1 120453Z 32016KT 02/01 A3001 RMK A01 T00160013  RH  098%=      5-min Rain = 0
KBO1 120454Z 32014KT 02/01 A3001 RMK A01 T00150012  RH  098%=      5-min Rain = 0
KBO1 120455Z 32014KT 02/01 A3001 RMK A01 T00150012  RH  098%=      5-min Rain = 0
KBO1 120456Z 31013KT 02/01 A3001 RMK A01 T00150012  RH  098%=      5-min Rain = 0.01
KBO1 120457Z 32016KT 02/01 A3001 RMK A01 T00150012  RH  098%=      5-min Rain = 0
KBO1 120458Z 31015KT 02/01 A3001 RMK A01 T00150012  RH  098%=      5-min Rain = 0
KBO1 120459Z 32017KT 02/01 A3001 RMK A01 T00150012  RH  098%=      5-min Rain = 0
KBO1 120500Z 31014KT 02/01 A3001 RMK A01 T00150012  RH  098%=      5-min Rain = 0
KBO1 120501Z 31018KT 02/01 A3001 RMK A01 T00150013  RH  099%=      5-min Rain = 0
KBO1 120502Z 31020KT 02/01 A3001 RMK A01 T00150013  RH  099%=      5-min Rain = 0
KBO1 120503Z 31020KT 02/01 A3001 RMK A01 T00160014  RH  099%=      5-min Rain = 0
KBO1 120504Z 31018G24KT 02/01 A3001 RMK A01 T00160014  RH  098%=      5-min Rain = 0
KBO1 120505Z 31023KT 02/01 A3001 RMK A01 T00160013  RH  098%=      5-min Rain = 0
KBO1 120506Z 31020KT 02/01 A3001 RMK A01 T00160013  RH  098%=      5-min Rain = 0
KBO1 120507Z 32023G31KT 02/01 A3001 RMK A01 T00170013  RH  097%=      5-min Rain = 0
KBO1 120508Z 32021KT 02/01 A3002 RMK A01 T00170013  RH  097%=      5-min Rain = 0
KBO1 120509Z 32018KT 02/01 A3002 RMK A01 T00170012  RH  096%=      5-min Rain = 0
KBO1 120510Z 32020KT 02/01 A3002 RMK A01 T00170011  RH  096%=      5-min Rain = 0
KBO1 120511Z 32023KT 02/01 A3001 RMK A01 T00170011  RH  096%=      5-min Rain = 0
KBO1 120512Z 32019KT 02/01 A3002 RMK A01 T00170011  RH  095%=      5-min Rain = 0
KBO1 120513Z 32016KT 02/01 A3002 RMK A01 T00170010  RH  095%=      5-min Rain = 0
KBO1 120514Z 32015KT 02/01 A3002 RMK A01 T00170010  RH  095%=      5-min Rain = 0
KBO1 120515Z 32015G21KT 02/01 A3002 RMK A01 T00170010  RH  095%=      5-min Rain = 0
KBO1 120516Z 33022KT 02/01 A3002 RMK A01 T00170009  RH  095%=      5-min Rain = 0
KBO1 120517Z 32019KT 02/01 A3002 RMK A01 T00170009  RH  094%=      5-min Rain = 0
KBO1 120518Z 33013KT 02/01 A3002 RMK A01 T00170008  RH  094%=      5-min Rain = 0
KBO1 120519Z 33015KT 02/01 A3002 RMK A01 T00170008  RH  094%=      5-min Rain = 0
KBO1 120520Z 32015KT 02/01 A3002 RMK A01 T00170009  RH  094%=      5-min Rain = 0
KBO1 120521Z 32017KT 02/01 A3002 RMK A01 T00170009  RH  094%=      5-min Rain = 0
KBO1 120522Z 32018KT 02/01 A3002 RMK A01 T00170009  RH  094%=      5-min Rain = 0
KBO1 120523Z 32017KT 02/01 A3002 RMK A01 T00170008  RH  094%=      5-min Rain = 0
KBO1 120524Z 33019KT 02/01 A3002 RMK A01 T00170008  RH  094%=      5-min Rain = 0
KBO1 120525Z 33017KT 02/01 A3002 RMK A01 T00170007  RH  093%=      5-min Rain = 0
KBO1 120526Z 32017KT 02/01 A3002 RMK A01 T00170008  RH  093%=      5-min Rain = 0
KBO1 120527Z 33014G19KT 02/01 A3002 RMK A01 T00170007  RH  094%=      5-min Rain = 0
KBO1 120528Z 32018KT 02/01 A3002 RMK A01 T00160008  RH  094%=      5-min Rain = 0
KBO1 120529Z 33016KT 02/01 A3002 RMK A01 T00170008  RH  094%=      5-min Rain = 0
KBO1 120530Z 32016KT 02/01 A3002 RMK A01 T00160008  RH  094%=      5-min Rain = 0
KBO1 120531Z 33018KT 02/01 A3002 RMK A01 T00160008  RH  094%=      5-min Rain = 0
KBO1 120532Z 33017KT 02/01 A3002 RMK A01 T00150007  RH  094%=      5-min Rain = 0
KBO1 120533Z 32015KT 02/01 A3002 RMK A01 T00150007  RH  094%=      5-min Rain = 0
KBO1 120534Z 33013KT 02/01 A3002 RMK A01 T00160008  RH  094%=      5-min Rain = 0
KBO1 120535Z 33014KT 02/01 A3002 RMK A01 T00160008  RH  094%=      5-min Rain = 0
KBO1 120536Z 33018KT 02/01 A3002 RMK A01 T00150008  RH  095%=      5-min Rain = 0
KBO1 120537Z 33016KT 02/01 A3002 RMK A01 T00150007  RH  095%=      5-min Rain = 0
KBO1 120538Z 33016KT 02/01 A3002 RMK A01 T00150007  RH  095%=      5-min Rain = 0
KBO1 120539Z 33017KT 01/01 A3002 RMK A01 T00140007  RH  095%=      5-min Rain = 0
KBO1 120540Z 33013KT 02/01 A3002 RMK A01 T00150008  RH  095%=      5-min Rain = 0
KBO1 120541Z 33016KT 01/01 A3002 RMK A01 T00140008  RH  095%=      5-min Rain = 0
KBO1 120542Z 33016G21KT 01/01 A3002 RMK A01 T00140008  RH  096%=      5-min Rain = 0
KBO1 120543Z 33017KT 01/01 A3002 RMK A01 T00140008  RH  096%=      5-min Rain = 0
KBO1 120544Z 33018KT 01/01 A3002 RMK A01 T00140008  RH  096%=      5-min Rain = 0
KBO1 120545Z 33017KT 01/01 A3002 RMK A01 T00140007  RH  096%=      5-min Rain = 0
KBO1 120546Z 33015KT 01/01 A3002 RMK A01 T00140008  RH  096%=      5-min Rain = 0
KBO1 120547Z 33017KT 01/01 A3002 RMK A01 T00140008  RH  096%=      5-min Rain = 0
KBO1 120548Z 33018KT 01/01 A3002 RMK A01 T00140008  RH  096%=      5-min Rain = 0
KBO1 120549Z 33016G21KT 01/01 A3002 RMK A01 T00140008  RH  096%=      5-min Rain = 0
KBO1 120550Z 33018KT 01/01 A3002 RMK A01 T00130008  RH  096%=      5-min Rain = 0
KBO1 120551Z 33017KT 01/01 A3002 RMK A01 T00130007  RH  096%=      5-min Rain = 0
KBO1 120552Z 33014KT 01/01 A3002 RMK A01 T00130008  RH  096%=      5-min Rain = 0
KBO1 120553Z 33016KT 01/01 A3002 RMK A01 T00130008  RH  096%=      5-min Rain = 0
KBO1 120554Z 33016KT 01/01 A3002 RMK A01 T00140008  RH  096%=      5-min Rain = 0
KBO1 120555Z 33015KT 01/01 A3002 RMK A01 T00130008  RH  096%=      5-min Rain = 0
KBO1 120556Z 32015KT 01/01 A3002 RMK A01 T00130008  RH  097%=      5-min Rain = 0
KBO1 120557Z 32016KT 01/01 A3002 RMK A01 T00130008  RH  097%=      5-min Rain = 0
KBO1 120558Z 32013KT 01/01 A3002 RMK A01 T00130008  RH  097%=      5-min Rain = 0
KBO1 120559Z 32019KT 01/01 A3002 RMK A01 T00130009  RH  097%=      5-min Rain = 0
KBO1 120600Z 32017KT 01/01 A3002 RMK A01 T00140009  RH  097%=      5-min Rain = 0

Page generated in 0.0392 seconds.